Time,TemperatureF,DewpointF,PressureIn,WindDirection,WindDirectionDegrees,WindSpeedMPH,WindSpeedGustMPH,Humidity,HourlyPrecipIn,Conditions,Clouds,dailyrainin,SoftwareType,DateUTC
2013-01-12 00:01:00,39.5,37.9,30.08,SSW,193,9.3,11.5,94,0.00,RA,OVC,0.00,WeatherDisplay:10.37,2013-01-12 05:01:00,
2013-01-12 00:03:00,39.5,38.2,30.08,South,174,6.8,10.4,95,0.00,RA,OVC,0.00,WeatherDisplay:10.37,2013-01-12 05:03:00,
2013-01-12 00:06:00,39.5,37.9,30.08,South,171,6.4,10.4,94,0.00,RA,OVC,0.00,WeatherDisplay:10.37,2013-01-12 05:06:00,
2013-01-12 00:09:00,39.7,38.4,30.08,South,190,8.3,10.4,95,0.00,RA,OVC,0.00,WeatherDisplay:10.37,2013-01-12 05:09:00,
2013-01-12 00:11:00,39.7,38.1,30.08,South,180,9.1,13.8,94,0.00,CLR,OVC,0.00,WeatherDisplay:10.37,2013-01-12 05:11:00,
2013-01-12 00:14:00,39.8,38.2,30.08,SSW,192,6.3,17.0,94,0.00,CLR,OVC,0.00,WeatherDisplay:10.37,2013-01-12 05:14:00,
2013-01-12 00:16:00,39.8,38.2,30.08,South,179,10.7,16.1,94,0.00,CLR,OVC,0.00,WeatherDisplay:10.37,2013-01-12 05:16:00,
2013-01-12 00:19:00,39.9,38.3,30.08,SSW,193,10.1,14.0,94,0.00,CLR,OVC,0.00,WeatherDisplay:10.37,2013-01-12 05:19:00,
2013-01-12 00:21:00,39.9,38.3,30.08,South,174,13.6,17.3,94,0.00,CLR,OVC,0.00,WeatherDisplay:10.37,2013-01-12 05:21:00,
2013-01-12 00:24:00,39.8,38.2,30.08,South,190,11.4,15.0,94,0.00,CLR,OVC,0.00,WeatherDisplay:10.37,2013-01-12 05:24:00,
2013-01-12 00:26:00,40.0,38.4,30.08,South,178,8.5,13.0,94,0.00,CLR,OVC,0.00,WeatherDisplay:10.37,2013-01-12 05:26:00,
2013-01-12 00:27:00,39.8,38.2,30.08,SSW,192,8.8,12.7,94,0.00,CLR,OVC,0.00,WeatherDisplay:10.37,2013-01-12 05:27:00,
2013-01-12 00:29:00,40.0,38.7,30.08,SSW,193,8.3,11.5,95,0.00,CLR,OVC,0.00,WeatherDisplay:10.37,2013-01-12 05:29:00,
2013-01-12 00:31:00,40.0,38.4,30.08,South,177,8.6,15.0,94,0.00,CLR,OVC,0.00,WeatherDisplay:10.37,2013-01-12 05:31:00,
2013-01-12 00:32:00,40.0,38.4,30.08,South,186,11.1,11.5,94,0.00,CLR,OVC,0.00,WeatherDisplay:10.37,2013-01-12 05:32:00,
2013-01-12 00:34:00,40.0,38.7,30.08,SSW,197,9.5,13.8,95,0.00,CLR,OVC,0.00,WeatherDisplay:10.37,2013-01-12 05:34:00,
2013-01-12 00:36:00,39.9,38.3,30.08,South,186,9.0,11.5,94,0.00,CLR,OVC,0.00,WeatherDisplay:10.37,2013-01-12 05:36:00,
2013-01-12 00:37:00,39.9,38.3,30.08,South,188,8.4,11.5,94,0.00,CLR,OVC,0.00,WeatherDisplay:10.37,2013-01-12 05:37:00,
2013-01-12 00:39:00,39.9,38.3,30.08,SSW,192,10.1,13.8,94,0.00,CLR,OVC,0.00,WeatherDisplay:10.37,2013-01-12 05:39:00,
2013-01-12 00:41:00,39.9,38.6,30.08,SSW,195,10.0,13.8,95,0.00,CLR,OVC,0.00,WeatherDisplay:10.37,2013-01-12 05:41:00,
2013-01-12 00:42:00,40.0,38.4,30.08,SSW,200,10.0,13.8,94,0.00,CLR,OVC,0.00,WeatherDisplay:10.37,2013-01-12 05:42:00,
2013-01-12 00:44:00,39.9,38.6,30.08,SSW,196,9.8,15.0,95,0.00,CLR,OVC,0.00,WeatherDisplay:10.37,2013-01-12 05:44:00,
2013-01-12 00:46:00,39.9,38.6,30.07,SSW,197,10.2,11.5,95,0.00,CLR,OVC,0.00,WeatherDisplay:10.37,2013-01-12 05:46:00,
2013-01-12 00:47:00,39.9,38.6,30.07,SSW,194,10.2,11.5,95,0.00,CLR,OVC,0.00,WeatherDisplay:10.37,2013-01-12 05:47:00,
2013-01-12 00:49:00,39.9,38.3,30.07,SSW,196,11.0,13.8,94,0.00,CLR,OVC,0.00,WeatherDisplay:10.37,2013-01-12 05:49:00,
2013-01-12 00:52:00,39.9,38.6,30.07,South,184,9.8,13.8,95,0.00,CLR,OVC,0.00,WeatherDisplay:10.37,2013-01-12 05:52:00,
2013-01-12 00:55:00,39.9,38.6,30.07,South,179,8.8,13.8,95,0.00,CLR,OVC,0.00,WeatherDisplay:10.37,2013-01-12 05:55:00,
2013-01-12 00:57:00,39.9,38.6,30.07,South,184,10.6,13.8,95,0.00,CLR,OVC,0.00,WeatherDisplay:10.37,2013-01-12 05:57:00,
2013-01-12 01:00:00,40.0,38.7,30.08,SSW,198,11.2,15.0,95,0.00,CLR,OVC,0.00,WeatherDisplay:10.37,2013-01-12 06:00:00,
2013-01-12 01:02:00,40.0,38.7,30.08,SSW,195,8.6,12.7,95,0.00,CLR,OVC,0.00,WeatherDisplay:10.37,2013-01-12 06:02:00,
2013-01-12 01:03:00,40.0,38.7,30.07,South,171,7.1,11.5,95,0.00,CLR,OVC,0.00,WeatherDisplay:10.37,2013-01-12 06:03:00,
2013-01-12 01:05:00,40.1,38.8,30.07,South,191,8.8,13.8,95,0.00,CLR,OVC,0.00,WeatherDisplay:10.37,2013-01-12 06:05:00,
2013-01-12 01:07:00,40.1,38.8,30.07,South,186,9.0,11.5,95,0.00,CLR,OVC,0.00,WeatherDisplay:10.37,2013-01-12 06:07:00,
2013-01-12 01:08:00,40.1,38.8,30.07,SSW,193,9.6,15.0,95,0.00,CLR,OVC,0.00,WeatherDisplay:10.37,2013-01-12 06:08:00,
2013-01-12 01:10:00,40.2,38.9,30.07,SSW,192,10.6,15.0,95,0.00,CLR,OVC,0.00,WeatherDisplay:10.37,2013-01-12 06:10:00,
2013-01-12 01:12:00,40.2,38.9,30.07,SSE,165,6.7,11.5,95,0.00,CLR,OVC,0.00,WeatherDisplay:10.37,2013-01-12 06:12:00,
2013-01-12 01:13:00,40.2,38.9,30.07,SSE,164,6.1,11.5,95,0.00,CLR,OVC,0.00,WeatherDisplay:10.37,2013-01-12 06:13:00,
2013-01-12 01:15:00,40.2,38.9,30.07,South,185,7.6,10.4,95,0.00,CLR,OVC,0.00,WeatherDisplay:10.37,2013-01-12 06:15:00,
2013-01-12 01:18:00,40.2,38.9,30.08,South,187,5.4,9.0,95,0.00,CLR,OVC,0.00,WeatherDisplay:10.37,2013-01-12 06:18:00,
2013-01-12 01:20:00,40.1,38.8,30.08,SSW,193,5.4,10.4,95,0.00,CLR,OVC,0.00,WeatherDisplay:10.37,2013-01-12 06:20:00,
2013-01-12 01:23:00,40.1,38.8,30.08,SSW,206,8.7,12.7,95,0.00,CLR,OVC,0.00,WeatherDisplay:10.37,2013-01-12 06:23:00,
2013-01-12 01:25:00,40.0,38.7,30.08,South,172,7.8,11.5,95,0.00,CLR,OVC,0.00,WeatherDisplay:10.37,2013-01-12 06:25:00,
2013-01-12 01:28:00,39.9,38.6,30.08,South,177,6.2,10.4,95,0.00,CLR,OVC,0.00,WeatherDisplay:10.37,2013-01-12 06:28:00,
2013-01-12 01:30:00,39.9,38.6,30.08,South,181,7.3,9.2,95,0.00,CLR,OVC,0.00,WeatherDisplay:10.37,2013-01-12 06:30:00,
2013-01-12 01:33:00,39.9,38.6,30.08,South,189,8.3,11.5,95,0.00,CLR,OVC,0.00,WeatherDisplay:10.37,2013-01-12 06:33:00,
2013-01-12 01:34:00,39.9,38.6,30.08,South,185,8.7,12.7,95,0.00,CLR,OVC,0.00,WeatherDisplay:10.37,2013-01-12 06:34:00,
2013-01-12 01:35:00,39.9,38.9,30.07,South,173,7.4,11.5,96,0.00,CLR,OVC,0.00,WeatherDisplay:10.37,2013-01-12 06:35:00,
2013-01-12 01:38:00,40.0,39.0,30.07,SSW,199,9.0,15.0,96,0.00,CLR,OVC,0.00,WeatherDisplay:10.37,2013-01-12 06:38:00,
2013-01-12 01:39:00,40.0,38.7,30.08,SSE,166,8.5,12.7,95,0.00,CLR,OVC,0.00,WeatherDisplay:10.37,2013-01-12 06:39:00,
2013-01-12 01:40:00,40.1,39.1,30.07,South,186,8.1,12.7,96,0.00,CLR,OVC,0.00,WeatherDisplay:10.37,2013-01-12 06:40:00,
2013-01-12 01:43:00,40.2,39.2,30.08,South,191,10.1,12.7,96,0.00,CLR,OVC,0.00,WeatherDisplay:10.37,2013-01-12 06:43:00,
2013-01-12 01:44:00,40.2,39.2,30.07,SSW,195,8.8,17.3,96,0.00,CLR,OVC,0.00,WeatherDisplay:10.37,2013-01-12 06:44:00,
2013-01-12 01:45:00,40.2,39.2,30.07,SSW,195,11.0,16.0,96,0.00,CLR,OVC,0.00,WeatherDisplay:10.37,2013-01-12 06:45:00,
2013-01-12 01:48:00,40.2,39.2,30.07,South,191,7.9,13.8,96,0.00,CLR,OVC,0.00,WeatherDisplay:10.37,2013-01-12 06:48:00,
2013-01-12 01:49:00,40.2,38.9,30.08,South,189,9.8,12.7,95,0.00,CLR,OVC,0.00,WeatherDisplay:10.37,2013-01-12 06:49:00,
2013-01-12 01:50:00,40.2,39.2,30.08,South,182,9.7,13.8,96,0.00,CLR,OVC,0.00,WeatherDisplay:10.37,2013-01-12 06:50:00,
2013-01-12 01:53:00,40.2,38.9,30.08,SSW,201,8.7,11.5,95,0.00,CLR,OVC,0.00,WeatherDisplay:10.37,2013-01-12 06:53:00,
2013-01-12 01:54:00,40.2,38.9,30.08,SSW,195,7.9,12.7,95,0.00,CLR,OVC,0.00,WeatherDisplay:10.37,2013-01-12 06:54:00,
2013-01-12 01:55:00,40.2,38.9,30.08,South,181,7.9,10.4,95,0.00,CLR,OVC,0.00,WeatherDisplay:10.37,2013-01-12 06:55:00,
2013-01-12 01:58:00,40.1,38.8,30.08,SSW,193,6.9,12.0,95,0.00,CLR,OVC,0.00,WeatherDisplay:10.37,2013-01-12 06:58:00,
2013-01-12 01:59:00,40.2,38.9,30.08,SSW,195,8.3,14.0,95,0.00,CLR,OVC,0.00,WeatherDisplay:10.37,2013-01-12 06:59:00,
2013-01-12 02:00:00,40.2,39.2,30.08,South,189,7.3,13.8,96,0.00,CLR,OVC,0.00,WeatherDisplay:10.37,2013-01-12 07:00:00,
2013-01-12 02:03:00,40.2,39.2,30.08,South,186,9.0,12.7,96,0.00,CLR,OVC,0.00,WeatherDisplay:10.37,2013-01-12 07:03:00,
2013-01-12 02:04:00,40.2,39.2,30.08,South,188,8.9,12.7,96,0.00,CLR,OVC,0.00,WeatherDisplay:10.37,2013-01-12 07:04:00,
2013-01-12 02:05:00,40.2,39.2,30.08,South,185,9.3,11.5,96,0.00,CLR,OVC,0.00,WeatherDisplay:10.37,2013-01-12 07:05:00,
2013-01-12 02:08:00,40.3,39.3,30.08,South,185,9.7,13.8,96,0.00,CLR,OVC,0.00,WeatherDisplay:10.37,2013-01-12 07:08:00,
2013-01-12 02:09:00,40.3,39.3,30.08,SSW,193,9.8,13.8,96,0.00,CLR,OVC,0.00,WeatherDisplay:10.37,2013-01-12 07:09:00,
2013-01-12 02:10:00,40.3,39.3,30.08,South,185,9.2,13.8,96,0.00,CLR,OVC,0.00,WeatherDisplay:10.37,2013-01-12 07:10:00,
2013-01-12 02:14:00,40.3,39.3,30.07,South,190,9.2,12.7,96,0.00,CLR,OVC,0.00,WeatherDisplay:10.37,2013-01-12 07:14:00,
2013-01-12 02:15:00,40.3,39.3,30.08,South,185,7.7,11.5,96,0.00,CLR,OVC,0.00,WeatherDisplay:10.37,2013-01-12 07:15:00,
2013-01-12 02:19:00,40.3,39.3,30.07,South,185,9.2,11.5,96,0.00,CLR,OVC,0.00,WeatherDisplay:10.37,2013-01-12 07:19:00,
2013-01-12 02:20:00,40.3,39.3,30.08,South,187,7.9,13.8,96,0.00,CLR,OVC,0.00,WeatherDisplay:10.37,2013-01-12 07:20:00,
2013-01-12 02:24:00,40.4,39.4,30.08,South,170,7.7,11.5,96,0.00,CLR,OVC,0.00,WeatherDisplay:10.37,2013-01-12 07:24:00,
2013-01-12 02:25:00,40.4,39.4,30.08,SSE,168,6.6,10.4,96,0.00,CLR,OVC,0.00,WeatherDisplay:10.37,2013-01-12 07:25:00,
2013-01-12 02:29:00,40.6,39.5,30.08,South,182,7.3,10.0,96,0.00,CLR,OVC,0.00,WeatherDisplay:10.37,2013-01-12 07:29:00,
2013-01-12 02:30:00,40.6,39.5,30.08,SSW,204,9.3,11.5,96,0.00,CLR,OVC,0.00,WeatherDisplay:10.37,2013-01-12 07:30:00,
2013-01-12 02:34:00,40.8,39.7,30.08,South,189,6.0,11.0,96,0.00,CLR,OVC,0.00,WeatherDisplay:10.37,2013-01-12 07:34:00,
2013-01-12 02:35:00,40.8,39.7,30.08,SSW,205,8.0,11.0,96,0.00,CLR,OVC,0.00,WeatherDisplay:10.37,2013-01-12 07:35:00,
2013-01-12 02:39:00,40.9,39.8,30.08,South,183,6.6,10.4,96,0.00,CLR,OVC,0.00,WeatherDisplay:10.37,2013-01-12 07:39:00,
2013-01-12 02:40:00,40.9,39.8,30.08,South,184,7.2,10.4,96,0.00,CLR,OVC,0.00,WeatherDisplay:10.37,2013-01-12 07:40:00,
2013-01-12 02:45:00,40.8,39.7,30.08,SSW,202,6.6,13.0,96,0.00,CLR,OVC,0.00,WeatherDisplay:10.37,2013-01-12 07:45:00,
2013-01-12 02:46:00,40.8,39.7,30.08,SSW,202,8.7,12.7,96,0.00,CLR,OVC,0.00,WeatherDisplay:10.37,2013-01-12 07:46:00,
2013-01-12 02:50:00,40.7,39.6,30.09,South,188,8.8,15.0,96,0.00,CLR,OVC,0.00,WeatherDisplay:10.37,2013-01-12 07:50:00,
2013-01-12 02:51:00,40.7,39.6,30.08,SSW,194,11.3,17.3,96,0.00,CLR,OVC,0.00,WeatherDisplay:10.37,2013-01-12 07:51:00,
2013-01-12 02:55:00,40.6,39.5,30.08,SSW,192,10.0,16.1,96,0.00,CLR,OVC,0.00,WeatherDisplay:10.37,2013-01-12 07:55:00,
2013-01-12 02:56:00,40.6,39.5,30.08,South,189,12.2,17.3,96,0.00,CLR,OVC,0.00,WeatherDisplay:10.37,2013-01-12 07:56:00,
2013-01-12 03:00:00,40.5,39.4,30.08,South,190,12.6,17.3,96,0.00,CLR,OVC,0.00,WeatherDisplay:10.37,2013-01-12 08:00:00,
2013-01-12 03:01:00,40.5,39.4,30.08,South,182,10.6,18.4,96,0.00,CLR,OVC,0.00,WeatherDisplay:10.37,2013-01-12 08:01:00,
2013-01-12 03:05:00,40.5,39.4,30.07,SSW,192,12.1,16.1,96,0.00,CLR,OVC,0.00,WeatherDisplay:10.37,2013-01-12 08:05:00,
2013-01-12 03:06:00,40.6,39.5,30.08,South,188,12.6,16.1,96,0.00,CLR,OVC,0.00,WeatherDisplay:10.37,2013-01-12 08:06:00,
2013-01-12 03:10:00,40.7,39.9,30.07,South,191,11.0,17.3,97,0.00,CLR,OVC,0.00,WeatherDisplay:10.37,2013-01-12 08:10:00,
2013-01-12 03:11:00,40.7,39.6,30.07,South,190,11.8,15.0,96,0.00,CLR,OVC,0.00,WeatherDisplay:10.37,2013-01-12 08:11:00,
2013-01-12 03:15:00,40.8,39.7,30.07,South,185,10.4,15.0,96,0.00,CLR,OVC,0.00,WeatherDisplay:10.37,2013-01-12 08:15:00,
2013-01-12 03:16:00,40.8,39.7,30.07,SSW,196,10.8,12.0,96,0.00,CLR,OVC,0.00,WeatherDisplay:10.37,2013-01-12 08:16:00,
2013-01-12 03:17:00,40.9,40.1,30.07,South,187,10.5,16.1,97,0.00,CLR,OVC,0.00,WeatherDisplay:10.37,2013-01-12 08:17:00,
2013-01-12 03:20:00,41.0,39.9,30.07,South,190,9.7,20.7,96,0.00,CLR,OVC,0.00,WeatherDisplay:10.37,2013-01-12 08:20:00,
2013-01-12 03:21:00,41.0,40.2,30.07,SSW,192,9.3,19.6,97,0.00,CLR,OVC,0.00,WeatherDisplay:10.37,2013-01-12 08:21:00,
2013-01-12 03:22:00,41.0,39.9,30.06,South,175,12.4,16.1,96,0.00,CLR,OVC,0.00,WeatherDisplay:10.37,2013-01-12 08:22:00,
2013-01-12 03:25:00,41.2,40.4,30.07,South,184,8.6,13.8,97,0.00,CLR,OVC,0.00,WeatherDisplay:10.37,2013-01-12 08:25:00,
2013-01-12 03:26:00,41.2,40.4,30.07,South,184,8.1,11.5,97,0.00,CLR,OVC,0.00,WeatherDisplay:10.37,2013-01-12 08:26:00,
2013-01-12 03:27:00,41.2,40.1,30.06,South,179,7.8,11.5,96,0.00,CLR,OVC,0.00,WeatherDisplay:10.37,2013-01-12 08:27:00,
2013-01-12 03:30:00,41.3,40.5,30.06,SSE,167,9.8,12.7,97,0.00,CLR,OVC,0.00,WeatherDisplay:10.37,2013-01-12 08:30:00,
2013-01-12 03:31:00,41.3,40.2,30.05,South,187,9.3,12.7,96,0.00,CLR,OVC,0.00,WeatherDisplay:10.37,2013-01-12 08:31:00,
2013-01-12 03:32:00,41.3,40.2,30.05,South,183,11.3,13.8,96,0.00,CLR,OVC,0.00,WeatherDisplay:10.37,2013-01-12 08:32:00,
2013-01-12 03:35:00,41.5,40.7,30.05,South,191,10.7,16.1,97,0.00,CLR,OVC,0.00,WeatherDisplay:10.37,2013-01-12 08:35:00,
2013-01-12 03:36:00,41.5,40.4,30.05,South,187,8.2,12.7,96,0.00,CLR,OVC,0.00,WeatherDisplay:10.37,2013-01-12 08:36:00,
2013-01-12 03:37:00,41.4,40.3,30.05,SSW,201,7.4,12.7,96,0.00,CLR,OVC,0.00,WeatherDisplay:10.37,2013-01-12 08:37:00,
2013-01-12 03:38:00,41.4,40.3,30.05,SSW,194,8.2,10.4,96,0.00,CLR,OVC,0.00,WeatherDisplay:10.37,2013-01-12 08:38:00,
2013-01-12 03:40:00,41.4,40.3,30.05,SSW,200,8.0,11.5,96,0.00,CLR,OVC,0.00,WeatherDisplay:10.37,2013-01-12 08:40:00,
2013-01-12 03:41:00,41.3,40.2,30.05,SSW,206,8.1,10.4,96,0.00,CLR,OVC,0.00,WeatherDisplay:10.37,2013-01-12 08:41:00,
2013-01-12 03:42:00,41.3,40.2,30.05,SSW,204,8.4,10.4,96,0.00,CLR,OVC,0.00,WeatherDisplay:10.37,2013-01-12 08:42:00,
2013-01-12 03:43:00,41.3,40.2,30.05,SSW,210,8.4,11.5,96,0.00,CLR,OVC,0.00,WeatherDisplay:10.37,2013-01-12 08:43:00,
2013-01-12 03:46:00,40.9,39.6,30.05,SW,218,8.4,10.4,95,0.00,CLR,OVC,0.00,WeatherDisplay:10.37,2013-01-12 08:46:00,
2013-01-12 03:47:00,40.6,39.3,30.05,SW,222,8.4,11.5,95,0.00,CLR,OVC,0.00,WeatherDisplay:10.37,2013-01-12 08:47:00,
2013-01-12 03:48:00,40.4,39.1,30.05,SW,219,7.6,10.0,95,0.00,CLR,OVC,0.00,WeatherDisplay:10.37,2013-01-12 08:48:00,
2013-01-12 03:51:00,39.9,38.6,30.06,SW,228,10.1,11.5,95,0.00,CLR,OVC,0.00,WeatherDisplay:10.37,2013-01-12 08:51:00,
2013-01-12 03:52:00,39.8,38.5,30.06,SW,229,9.7,12.0,95,0.00,CLR,OVC,0.00,WeatherDisplay:10.37,2013-01-12 08:52:00,
2013-01-12 03:53:00,39.7,38.4,30.06,SW,231,10.3,11.5,95,0.00,CLR,OVC,0.00,WeatherDisplay:10.37,2013-01-12 08:53:00,
2013-01-12 03:56:00,39.6,38.3,30.06,SW,217,6.8,8.1,95,0.00,CLR,OVC,0.00,WeatherDisplay:10.37,2013-01-12 08:56:00,
2013-01-12 03:57:00,39.6,38.6,30.06,South,189,7.8,10.4,96,0.00,CLR,OVC,0.00,WeatherDisplay:10.37,2013-01-12 08:57:00,
2013-01-12 03:58:00,39.6,38.6,30.06,South,188,7.4,10.4,96,0.00,CLR,OVC,0.00,WeatherDisplay:10.37,2013-01-12 08:58:00,
2013-01-12 04:01:00,39.5,38.5,30.07,South,181,6.5,8.1,96,0.00,CLR,OVC,0.00,WeatherDisplay:10.37,2013-01-12 09:01:00,
2013-01-12 04:02:00,39.6,38.6,30.07,South,187,6.1,9.0,96,0.00,CLR,OVC,0.00,WeatherDisplay:10.37,2013-01-12 09:02:00,
2013-01-12 04:03:00,39.5,38.5,30.07,SSW,193,6.7,9.2,96,0.00,CLR,OVC,0.00,WeatherDisplay:10.37,2013-01-12 09:03:00,
2013-01-12 04:06:00,39.5,38.7,30.07,SSW,209,7.4,10.0,97,0.00,CLR,OVC,0.00,WeatherDisplay:10.37,2013-01-12 09:06:00,
2013-01-12 04:07:00,39.5,38.5,30.07,SSW,211,6.0,9.2,96,0.00,CLR,OVC,0.00,WeatherDisplay:10.37,2013-01-12 09:07:00,
2013-01-12 04:08:00,39.5,38.7,30.07,SSW,210,6.3,9.2,97,0.00,CLR,OVC,0.00,WeatherDisplay:10.37,2013-01-12 09:08:00,
2013-01-12 04:11:00,39.5,38.5,30.07,SSW,192,5.7,10.4,96,0.00,CLR,OVC,0.00,WeatherDisplay:10.37,2013-01-12 09:11:00,
2013-01-12 04:13:00,39.6,38.8,30.07,South,189,4.1,8.1,97,0.00,CLR,OVC,0.00,WeatherDisplay:10.37,2013-01-12 09:13:00,
2013-01-12 04:14:00,39.5,38.7,30.07,South,189,3.9,8.1,97,0.00,CLR,OVC,0.00,WeatherDisplay:10.37,2013-01-12 09:14:00,
2013-01-12 04:16:00,39.7,38.9,30.06,SSE,163,7.0,10.0,97,0.00,CLR,OVC,0.00,WeatherDisplay:10.37,2013-01-12 09:16:00,
2013-01-12 04:19:00,39.9,39.1,30.06,SSE,168,8.7,11.5,97,0.00,CLR,OVC,0.00,WeatherDisplay:10.37,2013-01-12 09:19:00,
2013-01-12 04:21:00,40.1,39.3,30.05,South,173,7.8,11.5,97,0.00,CLR,OVC,0.00,WeatherDisplay:10.37,2013-01-12 09:21:00,
2013-01-12 04:24:00,40.3,39.5,30.05,SE,141,5.5,10.4,97,0.00,CLR,OVC,0.00,WeatherDisplay:10.37,2013-01-12 09:24:00,
2013-01-12 04:26:00,40.5,40.0,30.05,South,170,8.3,13.8,98,0.00,CLR,OVC,0.00,WeatherDisplay:10.37,2013-01-12 09:26:00,
2013-01-12 04:29:00,40.8,40.0,30.05,SSW,192,9.4,12.0,97,0.00,CLR,OVC,0.00,WeatherDisplay:10.37,2013-01-12 09:29:00,
2013-01-12 04:32:00,40.9,40.1,30.05,SSW,192,7.6,11.5,97,0.00,CLR,OVC,0.00,WeatherDisplay:10.37,2013-01-12 09:32:00,
2013-01-12 04:34:00,40.9,40.1,30.05,South,191,8.6,11.5,97,0.00,CLR,OVC,0.00,WeatherDisplay:10.37,2013-01-12 09:34:00,
2013-01-12 04:37:00,40.9,40.1,30.05,South,175,8.7,13.8,97,0.00,CLR,OVC,0.00,WeatherDisplay:10.37,2013-01-12 09:37:00,
2013-01-12 04:39:00,40.8,40.0,30.05,South,175,8.4,11.5,97,0.00,CLR,OVC,0.00,WeatherDisplay:10.37,2013-01-12 09:39:00,
2013-01-12 04:42:00,40.9,40.1,30.05,South,180,7.8,10.4,97,0.00,CLR,OVC,0.00,WeatherDisplay:10.37,2013-01-12 09:42:00,
2013-01-12 04:44:00,40.9,40.1,30.05,South,187,6.2,11.5,97,0.00,CLR,OVC,0.00,WeatherDisplay:10.37,2013-01-12 09:44:00,
2013-01-12 04:46:00,41.0,40.2,30.05,SSW,197,7.3,10.0,97,0.00,CLR,OVC,0.00,WeatherDisplay:10.37,2013-01-12 09:46:00,
2013-01-12 04:47:00,41.0,40.2,30.05,South,190,9.0,11.5,97,0.00,CLR,OVC,0.00,WeatherDisplay:10.37,2013-01-12 09:47:00,
2013-01-12 04:49:00,40.9,40.1,30.06,South,191,9.6,13.0,97,0.00,CLR,OVC,0.00,WeatherDisplay:10.37,2013-01-12 09:49:00,
2013-01-12 04:51:00,40.9,39.8,30.05,SSW,201,10.1,12.7,96,0.00,CLR,OVC,0.00,WeatherDisplay:10.37,2013-01-12 09:51:00,
2013-01-12 04:52:00,40.9,39.8,30.05,South,169,9.0,12.7,96,0.00,CLR,OVC,0.00,WeatherDisplay:10.37,2013-01-12 09:52:00,
2013-01-12 04:54:00,40.8,40.0,30.05,SSW,198,9.0,12.0,97,0.00,CLR,OVC,0.00,WeatherDisplay:10.37,2013-01-12 09:54:00,
2013-01-12 04:56:00,40.7,39.6,30.05,SSW,196,8.3,11.5,96,0.00,CLR,OVC,0.00,WeatherDisplay:10.37,2013-01-12 09:56:00,
2013-01-12 04:57:00,40.6,39.8,30.05,SSW,203,8.3,11.5,97,0.00,CLR,OVC,0.00,WeatherDisplay:10.37,2013-01-12 09:57:00,
2013-01-12 04:59:00,40.5,39.4,30.05,SSW,207,6.7,9.2,96,0.00,CLR,OVC,0.00,WeatherDisplay:10.37,2013-01-12 09:59:00,
2013-01-12 05:00:00,40.4,39.4,30.05,SSW,207,6.8,9.2,96,0.00,CLR,OVC,0.00,WeatherDisplay:10.37,2013-01-12 10:00:00,
2013-01-12 05:01:00,40.4,39.4,30.05,SSW,203,8.0,11.5,96,0.00,CLR,OVC,0.00,WeatherDisplay:10.37,2013-01-12 10:01:00,
2013-01-12 05:03:00,40.3,39.3,30.05,SSW,204,8.0,11.5,96,0.00,CLR,OVC,0.00,WeatherDisplay:10.37,2013-01-12 10:03:00,
2013-01-12 05:04:00,40.3,39.5,30.06,SSW,200,9.1,12.7,97,0.00,CLR,OVC,0.00,WeatherDisplay:10.37,2013-01-12 10:04:00,
2013-01-12 05:05:00,40.3,39.5,30.06,SSW,198,8.3,12.7,97,0.00,CLR,OVC,0.00,WeatherDisplay:10.37,2013-01-12 10:05:00,
2013-01-12 05:07:00,40.3,39.5,30.06,SSW,203,8.0,11.5,97,0.00,CLR,OVC,0.00,WeatherDisplay:10.37,2013-01-12 10:07:00,
2013-01-12 05:08:00,40.3,39.5,30.06,SSW,206,6.7,9.2,97,0.00,CLR,OVC,0.00,WeatherDisplay:10.37,2013-01-12 10:08:00,
2013-01-12 05:09:00,40.3,39.3,30.07,SSW,208,5.9,9.2,96,0.00,CLR,OVC,0.00,WeatherDisplay:10.37,2013-01-12 10:09:00,
2013-01-12 05:10:00,40.3,39.3,30.07,SSW,210,6.3,9.2,96,0.00,CLR,OVC,0.00,WeatherDisplay:10.37,2013-01-12 10:10:00,
2013-01-12 05:12:00,40.2,39.4,30.07,SSW,206,6.6,9.2,97,0.00,CLR,OVC,0.00,WeatherDisplay:10.37,2013-01-12 10:12:00,
2013-01-12 05:13:00,40.2,39.4,30.07,South,191,7.8,9.2,97,0.00,CLR,OVC,0.00,WeatherDisplay:10.37,2013-01-12 10:13:00,
2013-01-12 05:14:00,40.1,39.3,30.07,South,186,7.7,12.0,97,0.00,CLR,OVC,0.00,WeatherDisplay:10.37,2013-01-12 10:14:00,
2013-01-12 05:15:00,40.1,39.3,30.08,SSW,192,8.6,10.4,97,0.00,CLR,OVC,0.00,WeatherDisplay:10.37,2013-01-12 10:15:00,
2013-01-12 05:17:00,40.0,39.2,30.08,South,186,8.4,12.0,97,0.00,CLR,OVC,0.00,WeatherDisplay:10.37,2013-01-12 10:17:00,
2013-01-12 05:18:00,40.2,39.4,30.08,SSW,193,8.7,11.5,97,0.00,CLR,OVC,0.00,WeatherDisplay:10.37,2013-01-12 10:18:00,
2013-01-12 05:19:00,40.3,39.5,30.08,South,183,7.6,12.7,97,0.00,CLR,OVC,0.00,WeatherDisplay:10.37,2013-01-12 10:19:00,
2013-01-12 05:20:00,40.3,39.5,30.08,South,182,7.3,12.7,97,0.00,CLR,OVC,0.00,WeatherDisplay:10.37,2013-01-12 10:20:00,
2013-01-12 05:22:00,40.3,39.5,30.08,South,172,8.3,13.8,97,0.00,CLR,OVC,0.00,WeatherDisplay:10.37,2013-01-12 10:22:00,
2013-01-12 05:23:00,40.4,39.9,30.08,South,183,9.2,11.5,98,0.00,CLR,OVC,0.00,WeatherDisplay:10.37,2013-01-12 10:23:00,
2013-01-12 05:24:00,40.6,40.1,30.08,South,188,8.3,11.5,98,0.00,CLR,OVC,0.00,WeatherDisplay:10.37,2013-01-12 10:24:00,
2013-01-12 05:25:00,40.5,39.7,30.08,South,180,10.2,16.1,97,0.00,CLR,OVC,0.00,WeatherDisplay:10.37,2013-01-12 10:25:00,
2013-01-12 05:27:00,40.6,39.8,30.09,South,180,10.6,16.1,97,0.00,CLR,OVC,0.00,WeatherDisplay:10.37,2013-01-12 10:27:00,
2013-01-12 05:28:00,40.7,39.9,30.09,South,186,10.0,13.0,97,0.00,CLR,OVC,0.00,WeatherDisplay:10.37,2013-01-12 10:28:00,
2013-01-12 05:30:00,40.8,40.0,30.09,South,191,10.9,15.0,97,0.00,CLR,OVC,0.00,WeatherDisplay:10.37,2013-01-12 10:30:00,
2013-01-12 05:32:00,40.9,40.1,30.09,South,180,8.9,13.8,97,0.00,CLR,OVC,0.00,WeatherDisplay:10.37,2013-01-12 10:32:00,
2013-01-12 05:33:00,41.0,40.2,30.08,South,172,14.4,19.6,97,0.00,CLR,OVC,0.00,WeatherDisplay:10.37,2013-01-12 10:33:00,
2013-01-12 05:35:00,41.1,40.3,30.08,South,182,10.1,16.1,97,0.00,CLR,OVC,0.00,WeatherDisplay:10.37,2013-01-12 10:35:00,
2013-01-12 05:36:00,41.1,40.3,30.08,South,179,9.2,17.3,97,0.00,CLR,OVC,0.00,WeatherDisplay:10.37,2013-01-12 10:36:00,
2013-01-12 05:37:00,41.3,40.5,30.07,SSE,160,9.4,13.8,97,0.00,CLR,OVC,0.00,WeatherDisplay:10.37,2013-01-12 10:37:00,
2013-01-12 05:39:00,41.4,40.6,30.08,South,171,11.4,16.1,97,0.00,CLR,OVC,0.00,WeatherDisplay:10.37,2013-01-12 10:39:00,
2013-01-12 05:40:00,41.3,40.5,30.08,South,177,11.0,16.1,97,0.00,CLR,OVC,0.00,WeatherDisplay:10.37,2013-01-12 10:40:00,
2013-01-12 05:41:00,41.4,40.6,30.08,South,191,10.3,15.0,97,0.00,CLR,OVC,0.00,WeatherDisplay:10.37,2013-01-12 10:41:00,
2013-01-12 05:42:00,41.5,40.7,30.08,South,188,10.5,15.0,97,0.00,CLR,OVC,0.00,WeatherDisplay:10.37,2013-01-12 10:42:00,
2013-01-12 05:44:00,41.5,40.7,30.08,SSW,197,9.1,13.8,97,0.00,CLR,OVC,0.00,WeatherDisplay:10.37,2013-01-12 10:44:00,
2013-01-12 05:45:00,41.5,40.7,30.08,SSW,193,10.9,12.7,97,0.00,CLR,OVC,0.00,WeatherDisplay:10.37,2013-01-12 10:45:00,
2013-01-12 05:46:00,41.6,40.8,30.08,South,191,10.7,15.0,97,0.00,CLR,OVC,0.00,WeatherDisplay:10.37,2013-01-12 10:46:00,
2013-01-12 05:47:00,41.6,40.8,30.08,South,177,11.2,15.0,97,0.00,CLR,OVC,0.00,WeatherDisplay:10.37,2013-01-12 10:47:00,
2013-01-12 05:49:00,41.6,40.8,30.07,South,184,12.3,15.0,97,0.00,CLR,OVC,0.00,WeatherDisplay:10.37,2013-01-12 10:49:00,
2013-01-12 05:50:00,41.7,40.9,30.07,SSW,192,9.4,16.1,97,0.00,CLR,OVC,0.00,WeatherDisplay:10.37,2013-01-12 10:50:00,
2013-01-12 05:51:00,41.7,40.9,30.07,South,185,12.2,17.3,97,0.00,CLR,OVC,0.00,WeatherDisplay:10.37,2013-01-12 10:51:00,
2013-01-12 05:52:00,41.7,40.9,30.07,SSW,198,10.3,17.3,97,0.00,CLR,OVC,0.00,WeatherDisplay:10.37,2013-01-12 10:52:00,
2013-01-12 05:54:00,41.8,41.0,30.07,South,172,11.6,16.1,97,0.00,CLR,OVC,0.00,WeatherDisplay:10.37,2013-01-12 10:54:00,
2013-01-12 05:55:00,41.9,41.1,30.07,South,183,11.1,17.3,97,0.00,CLR,OVC,0.00,WeatherDisplay:10.37,2013-01-12 10:55:00,
2013-01-12 05:56:00,41.9,41.1,30.07,SSE,155,7.3,11.5,97,0.00,CLR,OVC,0.00,WeatherDisplay:10.37,2013-01-12 10:56:00,
2013-01-12 05:57:00,41.9,41.1,30.07,SSE,157,9.0,11.5,97,0.00,CLR,OVC,0.00,WeatherDisplay:10.37,2013-01-12 10:57:00,
2013-01-12 05:59:00,41.9,41.1,30.07,SSE,159,8.0,12.7,97,0.00,CLR,OVC,0.00,WeatherDisplay:10.37,2013-01-12 10:59:00,
2013-01-12 06:00:00,42.0,40.9,30.07,South,184,6.6,13.8,96,0.00,CLR,OVC,0.00,WeatherDisplay:10.37,2013-01-12 11:00:00,
2013-01-12 06:02:00,41.9,40.8,30.07,SSE,147,6.8,11.5,96,0.00,CLR,OVC,0.00,WeatherDisplay:10.37,2013-01-12 11:02:00,
2013-01-12 06:04:00,42.0,40.9,30.07,South,171,4.3,6.9,96,0.00,CLR,OVC,0.00,WeatherDisplay:10.37,2013-01-12 11:04:00,
2013-01-12 06:05:00,42.0,40.9,30.07,SSE,159,4.8,6.9,96,0.00,CLR,OVC,0.00,WeatherDisplay:10.37,2013-01-12 11:05:00,
2013-01-12 06:07:00,41.9,40.8,30.07,SSE,159,5.2,10.0,96,0.00,CLR,OVC,0.00,WeatherDisplay:10.37,2013-01-12 11:07:00,
2013-01-12 06:10:00,41.9,40.8,30.07,SSE,159,4.5,8.1,96,0.00,CLR,OVC,0.00,WeatherDisplay:10.37,2013-01-12 11:10:00,
2013-01-12 06:12:00,41.9,40.8,30.07,South,176,7.9,11.0,96,0.00,CLR,OVC,0.00,WeatherDisplay:10.37,2013-01-12 11:12:00,
2013-01-12 06:15:00,41.9,40.8,30.07,South,175,6.5,11.5,96,0.00,CLR,OVC,0.00,WeatherDisplay:10.37,2013-01-12 11:15:00,
2013-01-12 06:17:00,42.0,41.2,30.07,South,172,10.0,17.3,97,0.00,CLR,OVC,0.00,WeatherDisplay:10.37,2013-01-12 11:17:00,
2013-01-12 06:20:00,42.0,41.2,30.07,SSE,164,7.3,11.5,97,0.00,CLR,OVC,0.00,WeatherDisplay:10.37,2013-01-12 11:20:00,
2013-01-12 06:22:00,42.0,41.2,30.07,South,185,7.3,11.5,97,0.00,CLR,OVC,0.00,WeatherDisplay:10.37,2013-01-12 11:22:00,
2013-01-12 06:23:00,42.0,40.9,30.07,SSE,161,6.8,10.4,96,0.00,CLR,OVC,0.00,WeatherDisplay:10.37,2013-01-12 11:23:00,
2013-01-12 06:25:00,42.0,41.2,30.07,South,169,6.7,12.7,97,0.00,CLR,OVC,0.00,WeatherDisplay:10.37,2013-01-12 11:25:00,
2013-01-12 06:27:00,42.1,41.0,30.08,South,171,7.0,12.0,96,0.00,CLR,OVC,0.00,WeatherDisplay:10.37,2013-01-12 11:27:00,
2013-01-12 06:28:00,42.1,41.0,30.08,SSE,163,7.7,11.5,96,0.00,CLR,OVC,0.00,WeatherDisplay:10.37,2013-01-12 11:28:00,
2013-01-12 06:30:00,42.1,41.0,30.08,South,174,8.6,11.5,96,0.00,CLR,OVC,0.00,WeatherDisplay:10.37,2013-01-12 11:30:00,
2013-01-12 06:32:00,42.2,41.1,30.08,SSE,160,6.4,9.2,96,0.00,CLR,OVC,0.00,WeatherDisplay:10.37,2013-01-12 11:32:00,
2013-01-12 06:34:00,42.2,41.4,30.08,South,178,6.1,9.2,97,0.00,CLR,OVC,0.00,WeatherDisplay:10.37,2013-01-12 11:34:00,
2013-01-12 06:35:00,42.2,41.1,30.08,South,188,5.7,9.0,96,0.00,CLR,OVC,0.00,WeatherDisplay:10.37,2013-01-12 11:35:00,
2013-01-12 06:36:00,42.2,41.1,30.08,SSW,193,6.0,10.0,96,0.00,CLR,OVC,0.00,WeatherDisplay:10.37,2013-01-12 11:36:00,
2013-01-12 06:37:00,42.1,41.0,30.09,South,191,5.5,8.1,96,0.00,CLR,OVC,0.00,WeatherDisplay:10.37,2013-01-12 11:37:00,
2013-01-12 06:39:00,42.1,41.0,30.09,SSW,200,4.6,6.9,96,0.00,CLR,OVC,0.00,WeatherDisplay:10.37,2013-01-12 11:39:00,
2013-01-12 06:41:00,41.9,40.8,30.09,SSW,199,6.1,10.4,96,0.00,CLR,OVC,0.00,WeatherDisplay:10.37,2013-01-12 11:41:00,
2013-01-12 06:42:00,41.8,40.7,30.08,SSW,199,5.6,6.9,96,0.00,CLR,OVC,0.00,WeatherDisplay:10.37,2013-01-12 11:42:00,
2013-01-12 06:44:00,41.7,40.6,30.08,SSW,199,4.5,6.9,96,0.00,CLR,OVC,0.00,WeatherDisplay:10.37,2013-01-12 11:44:00,
2013-01-12 06:46:00,41.4,40.1,30.08,SSW,196,6.7,8.1,95,0.00,CLR,OVC,0.00,WeatherDisplay:10.37,2013-01-12 11:46:00,
2013-01-12 06:48:00,41.3,40.2,30.08,South,187,5.2,10.4,96,0.00,CLR,OVC,0.00,WeatherDisplay:10.37,2013-01-12 11:48:00,
2013-01-12 06:49:00,41.3,40.2,30.08,South,176,5.6,10.4,96,0.00,CLR,OVC,0.00,WeatherDisplay:10.37,2013-01-12 11:49:00,
2013-01-12 06:51:00,41.4,40.3,30.07,South,172,7.3,11.5,96,0.00,CLR,OVC,0.00,WeatherDisplay:10.37,2013-01-12 11:51:00,
2013-01-12 06:53:00,41.5,40.4,30.07,South,169,9.9,17.0,96,0.00,CLR,OVC,0.00,WeatherDisplay:10.37,2013-01-12 11:53:00,
2013-01-12 06:54:00,41.6,40.8,30.07,South,177,12.4,17.3,97,0.00,CLR,OVC,0.00,WeatherDisplay:10.37,2013-01-12 11:54:00,
2013-01-12 06:56:00,41.8,41.0,30.07,South,178,9.3,13.8,97,0.00,CLR,OVC,0.00,WeatherDisplay:10.37,2013-01-12 11:56:00,
2013-01-12 06:58:00,41.8,40.7,30.07,SSE,157,8.6,12.7,96,0.00,CLR,OVC,0.00,WeatherDisplay:10.37,2013-01-12 11:58:00,
2013-01-12 06:59:00,41.9,41.1,30.07,South,172,8.4,11.5,97,0.00,CLR,OVC,0.00,WeatherDisplay:10.37,2013-01-12 11:59:00,
2013-01-12 07:01:00,42.0,41.2,30.07,South,169,9.0,15.0,97,0.00,CLR,OVC,0.00,WeatherDisplay:10.37,2013-01-12 12:01:00,
2013-01-12 07:03:00,42.0,40.9,30.07,SSE,168,11.9,15.0,96,0.00,CLR,OVC,0.00,WeatherDisplay:10.37,2013-01-12 12:03:00,
2013-01-12 07:04:00,42.1,41.0,30.07,South,186,7.4,11.5,96,0.00,CLR,OVC,0.00,WeatherDisplay:10.37,2013-01-12 12:04:00,
2013-01-12 07:06:00,42.1,41.3,30.08,SSW,193,8.2,11.5,97,0.00,CLR,OVC,0.00,WeatherDisplay:10.37,2013-01-12 12:06:00,
2013-01-12 07:08:00,42.0,40.9,30.07,South,175,7.8,11.5,96,0.00,CLR,OVC,0.00,WeatherDisplay:10.37,2013-01-12 12:08:00,
2013-01-12 07:10:00,42.0,40.9,30.07,South,177,5.9,8.1,96,0.00,CLR,OVC,0.00,WeatherDisplay:10.37,2013-01-12 12:10:00,
2013-01-12 07:11:00,42.1,41.3,30.08,SE,129,8.8,12.7,97,0.00,CLR,OVC,0.00,WeatherDisplay:10.37,2013-01-12 12:11:00,
2013-01-12 07:12:00,42.1,41.3,30.08,SSE,163,7.6,12.7,97,0.00,CLR,OVC,0.00,WeatherDisplay:10.37,2013-01-12 12:12:00,
2013-01-12 07:13:00,42.1,41.0,30.08,South,173,5.3,10.4,96,0.00,CLR,OVC,0.00,WeatherDisplay:10.37,2013-01-12 12:13:00,
2013-01-12 07:15:00,42.0,40.9,30.08,South,173,5.5,6.9,96,0.00,CLR,OVC,0.00,WeatherDisplay:10.37,2013-01-12 12:15:00,
2013-01-12 07:16:00,41.8,40.7,30.09,South,173,5.4,6.9,96,0.00,CLR,OVC,0.00,WeatherDisplay:10.37,2013-01-12 12:16:00,
2013-01-12 07:17:00,41.7,40.6,30.09,South,174,5.9,7.0,96,0.00,CLR,OVC,0.00,WeatherDisplay:10.37,2013-01-12 12:17:00,
2013-01-12 07:18:00,41.5,40.2,30.09,SSW,204,6.4,6.9,95,0.00,CLR,OVC,0.00,WeatherDisplay:10.37,2013-01-12 12:18:00,
2013-01-12 07:20:00,41.2,39.9,30.10,SW,220,5.3,8.1,95,0.00,CLR,OVC,0.00,WeatherDisplay:10.37,2013-01-12 12:20:00,
2013-01-12 07:21:00,41.0,39.7,30.10,SSW,200,6.3,8.1,95,0.00,CLR,OVC,0.00,WeatherDisplay:10.37,2013-01-12 12:21:00,
2013-01-12 07:22:00,41.0,39.9,30.10,SSW,200,5.8,8.1,96,0.00,CLR,OVC,0.00,WeatherDisplay:10.37,2013-01-12 12:22:00,
2013-01-12 07:23:00,40.9,39.8,30.10,SSW,199,4.2,6.9,96,0.00,CLR,OVC,0.00,WeatherDisplay:10.37,2013-01-12 12:23:00,
2013-01-12 07:25:00,40.8,39.7,30.10,SSW,200,3.5,4.6,96,0.00,CLR,OVC,0.00,WeatherDisplay:10.37,2013-01-12 12:25:00,
2013-01-12 07:27:00,40.7,39.6,30.10,SSW,197,3.6,4.0,96,0.00,CLR,OVC,0.00,WeatherDisplay:10.37,2013-01-12 12:27:00,
2013-01-12 07:28:00,40.7,39.6,30.10,SSW,197,4.4,4.6,96,0.00,CLR,OVC,0.00,WeatherDisplay:10.37,2013-01-12 12:28:00,
2013-01-12 07:30:00,40.6,39.5,30.10,SSW,197,4.4,5.8,96,0.00,CLR,OVC,0.00,WeatherDisplay:10.37,2013-01-12 12:30:00,
2013-01-12 07:32:00,40.7,39.6,30.10,SSW,197,4.4,5.8,96,0.00,CLR,OVC,0.00,WeatherDisplay:10.37,2013-01-12 12:32:00,
2013-01-12 07:34:00,40.9,40.1,30.10,South,185,5.0,6.9,97,0.00,CLR,OVC,0.00,WeatherDisplay:10.37,2013-01-12 12:34:00,
2013-01-12 07:35:00,41.0,40.2,30.10,South,180,6.0,8.1,97,0.00,CLR,OVC,0.00,WeatherDisplay:10.37,2013-01-12 12:35:00,
2013-01-12 07:37:00,41.2,40.4,30.11,South,191,6.6,10.4,97,0.00,CLR,OVC,0.00,WeatherDisplay:10.37,2013-01-12 12:37:00,
2013-01-12 07:39:00,41.2,40.4,30.10,SSW,205,6.2,6.9,97,0.00,CLR,OVC,0.00,WeatherDisplay:10.37,2013-01-12 12:39:00,
2013-01-12 07:40:00,41.3,40.5,30.10,South,179,7.3,9.2,97,0.00,CLR,OVC,0.00,WeatherDisplay:10.37,2013-01-12 12:40:00,
2013-01-12 07:42:00,41.3,40.5,30.10,South,186,6.8,9.2,97,0.00,CLR,OVC,0.00,WeatherDisplay:10.37,2013-01-12 12:42:00,
2013-01-12 07:44:00,41.7,40.9,30.10,South,180,7.1,9.2,97,0.00,CLR,OVC,0.00,WeatherDisplay:10.37,2013-01-12 12:44:00,
2013-01-12 07:45:00,41.8,41.0,30.10,SSE,157,8.6,15.0,97,0.00,CLR,OVC,0.00,WeatherDisplay:10.37,2013-01-12 12:45:00,
2013-01-12 07:47:00,41.9,41.4,30.10,South,170,8.6,13.8,98,0.00,CLR,OVC,0.00,WeatherDisplay:10.37,2013-01-12 12:47:00,
2013-01-12 07:48:00,41.9,41.1,30.10,SSE,162,8.8,13.8,97,0.00,CLR,OVC,0.00,WeatherDisplay:10.37,2013-01-12 12:48:00,
2013-01-12 07:49:00,42.1,41.3,30.09,SSE,162,6.2,11.5,97,0.00,CLR,OVC,0.00,WeatherDisplay:10.37,2013-01-12 12:49:00,
2013-01-12 07:50:00,42.3,41.8,30.09,South,179,7.1,11.5,98,0.00,CLR,OVC,0.00,WeatherDisplay:10.37,2013-01-12 12:50:00,
2013-01-12 07:53:00,42.5,42.0,30.09,South,174,10.7,15.0,98,0.00,CLR,OVC,0.00,WeatherDisplay:10.37,2013-01-12 12:53:00,
2013-01-12 07:54:00,42.6,41.8,30.09,SSE,164,7.5,11.5,97,0.00,CLR,OVC,0.00,WeatherDisplay:10.37,2013-01-12 12:54:00,
2013-01-12 07:55:00,42.6,41.8,30.09,South,186,9.6,13.8,97,0.00,CLR,OVC,0.00,WeatherDisplay:10.37,2013-01-12 12:55:00,
2013-01-12 07:58:00,42.9,42.4,30.09,South,174,13.5,21.9,98,0.00,CLR,OVC,0.00,WeatherDisplay:10.37,2013-01-12 12:58:00,
2013-01-12 08:00:00,43.1,42.3,30.09,South,175,12.0,18.4,97,0.00,CLR,OVC,0.00,WeatherDisplay:10.37,2013-01-12 13:00:00,
2013-01-12 08:03:00,43.3,42.5,30.10,South,174,11.3,17.3,97,0.00,CLR,OVC,0.00,WeatherDisplay:10.37,2013-01-12 13:03:00,
2013-01-12 08:05:00,43.3,42.5,30.10,South,188,9.4,16.0,97,0.00,CLR,OVC,0.00,WeatherDisplay:10.37,2013-01-12 13:05:00,
2013-01-12 08:08:00,43.3,42.5,30.10,SSW,200,10.1,12.7,97,0.00,CLR,OVC,0.00,WeatherDisplay:10.37,2013-01-12 13:08:00,
2013-01-12 08:09:00,43.3,42.5,30.10,SSW,203,8.5,11.5,97,0.00,CLR,OVC,0.00,WeatherDisplay:10.37,2013-01-12 13:09:00,
2013-01-12 08:10:00,43.3,42.5,30.10,SSW,203,9.3,11.5,97,0.00,CLR,OVC,0.00,WeatherDisplay:10.37,2013-01-12 13:10:00,
2013-01-12 08:11:00,43.1,42.0,30.10,SSW,204,7.4,11.5,96,0.00,CLR,OVC,0.00,WeatherDisplay:10.37,2013-01-12 13:11:00,
2013-01-12 08:13:00,42.9,41.8,30.10,SSW,212,7.2,11.5,96,0.00,CLR,OVC,0.00,WeatherDisplay:10.37,2013-01-12 13:13:00,
2013-01-12 08:14:00,42.5,41.2,30.11,SSW,213,7.4,8.1,95,0.00,CLR,OVC,0.00,WeatherDisplay:10.37,2013-01-12 13:14:00,
2013-01-12 08:15:00,42.3,41.0,30.11,SSW,213,6.2,8.1,95,0.00,CLR,OVC,0.00,WeatherDisplay:10.37,2013-01-12 13:15:00,
2013-01-12 08:16:00,42.3,40.7,30.11,SW,214,6.6,8.1,94,0.00,CLR,OVC,0.00,WeatherDisplay:10.37,2013-01-12 13:16:00,
2013-01-12 08:18:00,41.8,40.5,30.11,SW,214,6.2,9.2,95,0.00,CLR,OVC,0.00,WeatherDisplay:10.37,2013-01-12 13:18:00,
2013-01-12 08:19:00,41.6,40.3,30.11,SW,214,6.3,9.2,95,0.00,CLR,OVC,0.00,WeatherDisplay:10.37,2013-01-12 13:19:00,
2013-01-12 08:20:00,41.5,40.2,30.11,SW,214,6.9,8.1,95,0.00,CLR,OVC,0.00,WeatherDisplay:10.37,2013-01-12 13:20:00,
2013-01-12 08:21:00,41.4,40.1,30.11,SW,215,6.3,8.1,95,0.00,CLR,OVC,0.00,WeatherDisplay:10.37,2013-01-12 13:21:00,
2013-01-12 08:23:00,41.2,40.1,30.11,SW,215,6.9,8.1,96,0.00,CLR,OVC,0.00,WeatherDisplay:10.37,2013-01-12 13:23:00,
2013-01-12 08:25:00,41.1,40.0,30.11,SW,216,6.0,8.1,96,0.00,CLR,OVC,0.00,WeatherDisplay:10.37,2013-01-12 13:25:00,
2013-01-12 08:26:00,41.0,39.9,30.11,SW,216,5.2,8.1,96,0.00,CLR,OVC,0.00,WeatherDisplay:10.37,2013-01-12 13:26:00,
2013-01-12 08:28:00,40.8,39.7,30.11,SSW,211,5.1,6.9,96,0.00,CLR,OVC,0.00,WeatherDisplay:10.37,2013-01-12 13:28:00,
2013-01-12 08:30:00,40.8,39.7,30.11,SSW,208,4.9,6.0,96,0.00,CLR,OVC,0.00,WeatherDisplay:10.37,2013-01-12 13:30:00,
2013-01-12 08:31:00,40.8,39.7,30.11,SSW,206,5.3,6.9,96,0.00,CLR,OVC,0.00,WeatherDisplay:10.37,2013-01-12 13:31:00,
2013-01-12 08:33:00,41.0,40.2,30.10,South,188,5.0,8.0,97,0.00,CLR,OVC,0.00,WeatherDisplay:10.37,2013-01-12 13:33:00,
2013-01-12 08:35:00,41.2,40.7,30.10,South,179,9.1,11.5,98,0.00,CLR,OVC,0.00,WeatherDisplay:10.37,2013-01-12 13:35:00,
2013-01-12 08:36:00,41.4,40.9,30.10,SSE,155,8.8,13.8,98,0.00,CLR,OVC,0.00,WeatherDisplay:10.37,2013-01-12 13:36:00,
2013-01-12 08:39:00,41.9,41.4,30.10,SSW,200,8.7,11.5,98,0.00,CLR,OVC,0.00,WeatherDisplay:10.37,2013-01-12 13:39:00,
2013-01-12 08:40:00,42.1,41.6,30.10,South,185,7.8,11.5,98,0.00,CLR,OVC,0.00,WeatherDisplay:10.37,2013-01-12 13:40:00,
2013-01-12 08:41:00,42.3,41.8,30.10,South,175,9.0,11.5,98,0.00,CLR,OVC,0.00,WeatherDisplay:10.37,2013-01-12 13:41:00,
2013-01-12 08:42:00,42.3,41.8,30.10,South,176,8.6,11.5,98,0.00,CLR,OVC,0.00,WeatherDisplay:10.37,2013-01-12 13:42:00,
2013-01-12 08:44:00,42.4,41.6,30.10,South,183,10.2,11.5,97,0.00,CLR,OVC,0.00,WeatherDisplay:10.37,2013-01-12 13:44:00,
2013-01-12 08:45:00,42.5,41.7,30.10,South,188,9.6,11.5,97,0.00,CLR,OVC,0.00,WeatherDisplay:10.37,2013-01-12 13:45:00,
2013-01-12 08:46:00,42.6,41.8,30.10,SSE,164,8.8,11.5,97,0.00,CLR,OVC,0.00,WeatherDisplay:10.37,2013-01-12 13:46:00,
2013-01-12 08:47:00,42.5,41.7,30.10,South,176,8.6,11.5,97,0.00,CLR,OVC,0.00,WeatherDisplay:10.37,2013-01-12 13:47:00,
2013-01-12 08:49:00,42.7,42.1,30.10,South,183,10.0,17.0,98,0.00,CLR,OVC,0.00,WeatherDisplay:10.37,2013-01-12 13:49:00,
2013-01-12 08:50:00,42.7,41.9,30.10,South,180,10.1,13.8,97,0.00,CLR,OVC,0.00,WeatherDisplay:10.37,2013-01-12 13:50:00,
2013-01-12 08:51:00,42.8,42.0,30.09,South,176,7.2,12.7,97,0.00,CLR,OVC,0.00,WeatherDisplay:10.37,2013-01-12 13:51:00,
2013-01-12 08:52:00,42.8,42.0,30.10,South,180,7.1,12.7,97,0.00,CLR,OVC,0.00,WeatherDisplay:10.37,2013-01-12 13:52:00,
2013-01-12 08:54:00,42.8,42.0,30.10,South,178,9.1,13.8,97,0.00,CLR,OVC,0.00,WeatherDisplay:10.37,2013-01-12 13:54:00,
2013-01-12 08:56:00,42.8,42.0,30.09,SSW,197,8.4,13.8,97,0.00,CLR,OVC,0.00,WeatherDisplay:10.37,2013-01-12 13:56:00,
2013-01-12 08:57:00,42.8,42.0,30.10,South,184,10.3,13.8,97,0.00,CLR,OVC,0.00,WeatherDisplay:10.37,2013-01-12 13:57:00,
2013-01-12 09:00:00,42.8,42.0,30.09,South,177,8.3,11.5,97,0.00,CLR,OVC,0.00,WeatherDisplay:10.37,2013-01-12 14:00:00,
2013-01-12 09:01:00,42.8,42.0,30.09,South,169,7.5,11.5,97,0.00,CLR,OVC,0.00,WeatherDisplay:10.37,2013-01-12 14:01:00,
2013-01-12 09:02:00,42.7,41.9,30.09,South,182,6.0,9.2,97,0.00,CLR,OVC,0.00,WeatherDisplay:10.37,2013-01-12 14:02:00,
2013-01-12 09:05:00,42.8,42.0,30.09,South,187,9.1,12.7,97,0.00,CLR,OVC,0.00,WeatherDisplay:10.37,2013-01-12 14:05:00,
2013-01-12 09:06:00,42.8,42.0,30.09,South,179,9.3,12.7,97,0.00,CLR,OVC,0.00,WeatherDisplay:10.37,2013-01-12 14:06:00,
2013-01-12 09:07:00,42.8,42.0,30.09,South,181,8.8,11.5,97,0.00,CLR,OVC,0.00,WeatherDisplay:10.37,2013-01-12 14:07:00,
2013-01-12 09:10:00,42.9,42.1,30.08,South,184,7.1,11.0,97,0.00,CLR,OVC,0.00,WeatherDisplay:10.37,2013-01-12 14:10:00,
2013-01-12 09:11:00,43.0,42.2,30.09,SSW,195,8.3,11.5,97,0.00,CLR,OVC,0.00,WeatherDisplay:10.37,2013-01-12 14:11:00,
2013-01-12 09:12:00,42.9,42.1,30.09,SSW,194,9.1,11.5,97,0.00,CLR,OVC,0.00,WeatherDisplay:10.37,2013-01-12 14:12:00,
2013-01-12 09:15:00,43.0,42.2,30.09,South,176,7.3,11.5,97,0.00,CLR,OVC,0.00,WeatherDisplay:10.37,2013-01-12 14:15:00,
2013-01-12 09:16:00,43.0,42.2,30.09,South,186,6.0,8.1,97,0.00,CLR,OVC,0.00,WeatherDisplay:10.37,2013-01-12 14:16:00,
2013-01-12 09:17:00,43.0,42.2,30.09,SSW,192,8.3,11.5,97,0.00,CLR,OVC,0.00,WeatherDisplay:10.37,2013-01-12 14:17:00,
2013-01-12 09:20:00,43.0,42.2,30.09,SSW,198,6.7,8.1,97,0.00,CLR,OVC,0.00,WeatherDisplay:10.37,2013-01-12 14:20:00,
2013-01-12 09:21:00,42.9,42.1,30.09,SSW,194,6.4,9.2,97,0.00,CLR,OVC,0.00,WeatherDisplay:10.37,2013-01-12 14:21:00,
2013-01-12 09:22:00,42.9,42.1,30.10,South,189,8.1,10.4,97,0.00,CLR,OVC,0.00,WeatherDisplay:10.37,2013-01-12 14:22:00,
2013-01-12 09:25:00,42.9,42.1,30.09,SSW,196,6.3,8.1,97,0.00,CLR,OVC,0.00,WeatherDisplay:10.37,2013-01-12 14:25:00,
2013-01-12 09:26:00,42.8,42.0,30.09,South,177,7.5,9.2,97,0.00,CLR,OVC,0.00,WeatherDisplay:10.37,2013-01-12 14:26:00,
2013-01-12 09:27:00,42.9,42.1,30.09,South,183,6.2,10.4,97,0.00,CLR,OVC,0.00,WeatherDisplay:10.37,2013-01-12 14:27:00,
2013-01-12 09:30:00,42.9,42.1,30.09,South,174,9.1,12.7,97,0.00,CLR,OVC,0.00,WeatherDisplay:10.37,2013-01-12 14:30:00,
2013-01-12 09:31:00,42.9,42.1,30.09,SSE,164,8.2,12.7,97,0.00,CLR,OVC,0.00,WeatherDisplay:10.37,2013-01-12 14:31:00,
2013-01-12 09:32:00,42.9,42.1,30.09,South,175,7.7,10.4,97,0.00,CLR,OVC,0.00,WeatherDisplay:10.37,2013-01-12 14:32:00,
2013-01-12 09:33:00,42.9,42.1,30.09,South,169,7.4,11.5,97,0.00,CLR,OVC,0.00,WeatherDisplay:10.37,2013-01-12 14:33:00,
2013-01-12 09:35:00,43.0,42.2,30.09,South,180,8.1,11.5,97,0.00,CLR,OVC,0.00,WeatherDisplay:10.37,2013-01-12 14:35:00,
2013-01-12 09:36:00,43.0,42.2,30.09,South,175,6.6,11.5,97,0.00,CLR,OVC,0.00,WeatherDisplay:10.37,2013-01-12 14:36:00,
2013-01-12 09:37:00,43.1,42.3,30.09,South,183,6.4,9.2,97,0.00,CLR,OVC,0.00,WeatherDisplay:10.37,2013-01-12 14:37:00,
2013-01-12 09:38:00,43.1,42.3,30.09,South,185,7.3,9.2,97,0.00,CLR,OVC,0.00,WeatherDisplay:10.37,2013-01-12 14:38:00,
2013-01-12 09:40:00,43.2,42.4,30.09,South,184,7.2,11.5,97,0.00,CLR,OVC,0.00,WeatherDisplay:10.37,2013-01-12 14:40:00,
2013-01-12 09:41:00,43.3,42.5,30.09,South,170,9.7,12.7,97,0.00,CLR,OVC,0.00,WeatherDisplay:10.37,2013-01-12 14:41:00,
2013-01-12 09:42:00,43.5,43.0,30.09,South,186,7.8,11.5,98,0.00,CLR,OVC,0.00,WeatherDisplay:10.37,2013-01-12 14:42:00,
2013-01-12 09:43:00,43.5,42.7,30.09,South,183,7.5,11.5,97,0.00,CLR,OVC,0.00,WeatherDisplay:10.37,2013-01-12 14:43:00,
2013-01-12 09:45:00,43.3,42.8,30.09,South,190,8.5,11.5,98,0.00,CLR,OVC,0.00,WeatherDisplay:10.37,2013-01-12 14:45:00,
2013-01-12 09:46:00,43.6,42.8,30.09,SSW,198,9.0,11.5,97,0.00,CLR,OVC,0.00,WeatherDisplay:10.37,2013-01-12 14:46:00,
2013-01-12 09:48:00,43.6,42.8,30.09,South,190,7.9,11.5,97,0.00,CLR,OVC,0.00,WeatherDisplay:10.37,2013-01-12 14:48:00,
2013-01-12 09:50:00,43.7,42.9,30.09,SSW,198,6.8,11.5,97,0.00,CLR,OVC,0.00,WeatherDisplay:10.37,2013-01-12 14:50:00,
2013-01-12 09:51:00,43.5,42.7,30.09,South,184,6.6,9.2,97,0.00,CLR,OVC,0.00,WeatherDisplay:10.37,2013-01-12 14:51:00,
2013-01-12 09:53:00,43.7,42.9,30.09,South,172,8.4,11.5,97,0.00,CLR,OVC,0.00,WeatherDisplay:10.37,2013-01-12 14:53:00,
2013-01-12 09:55:00,43.8,43.0,30.08,South,171,7.1,13.0,97,0.00,CLR,OVC,0.00,WeatherDisplay:10.37,2013-01-12 14:55:00,
2013-01-12 09:57:00,43.8,43.0,30.08,South,185,9.9,12.7,97,0.00,CLR,OVC,0.00,WeatherDisplay:10.37,2013-01-12 14:57:00,
2013-01-12 09:58:00,43.9,43.1,30.08,South,175,7.2,11.5,97,0.00,CLR,OVC,0.00,WeatherDisplay:10.37,2013-01-12 14:58:00,
2013-01-12 10:00:00,44.0,43.2,30.08,SSW,193,7.7,11.5,97,0.00,CLR,OVC,0.00,WeatherDisplay:10.37,2013-01-12 15:00:00,
2013-01-12 10:02:00,44.0,43.2,30.08,South,190,7.7,11.5,97,0.00,CLR,OVC,0.00,WeatherDisplay:10.37,2013-01-12 15:02:00,
2013-01-12 10:03:00,44.1,43.3,30.08,SSE,164,8.4,13.8,97,0.00,CLR,OVC,0.00,WeatherDisplay:10.37,2013-01-12 15:03:00,
2013-01-12 10:04:00,44.1,43.0,30.08,SSE,160,7.9,13.8,96,0.00,CLR,OVC,0.00,WeatherDisplay:10.37,2013-01-12 15:04:00,
2013-01-12 10:06:00,44.1,43.3,30.08,SSW,192,7.5,11.5,97,0.00,CLR,OVC,0.00,WeatherDisplay:10.37,2013-01-12 15:06:00,
2013-01-12 10:07:00,44.2,43.4,30.08,South,173,9.7,13.8,97,0.00,CLR,OVC,0.00,WeatherDisplay:10.37,2013-01-12 15:07:00,
2013-01-12 10:08:00,44.3,43.5,30.08,South,174,9.8,13.0,97,0.00,CLR,OVC,0.00,WeatherDisplay:10.37,2013-01-12 15:08:00,
2013-01-12 10:09:00,44.3,43.2,30.08,SSE,166,10.9,12.7,96,0.00,CLR,OVC,0.00,WeatherDisplay:10.37,2013-01-12 15:09:00,
2013-01-12 10:11:00,44.3,43.2,30.08,South,179,11.1,17.3,96,0.00,CLR,OVC,0.00,WeatherDisplay:10.37,2013-01-12 15:11:00,
2013-01-12 10:12:00,44.3,43.2,30.07,South,179,11.5,16.1,96,0.00,CLR,OVC,0.00,WeatherDisplay:10.37,2013-01-12 15:12:00,
2013-01-12 10:13:00,44.2,43.1,30.08,South,174,9.5,13.8,96,0.00,CLR,OVC,0.00,WeatherDisplay:10.37,2013-01-12 15:13:00,
2013-01-12 10:14:00,44.2,43.1,30.08,South,175,9.1,13.8,96,0.00,CLR,OVC,0.00,WeatherDisplay:10.37,2013-01-12 15:14:00,
2013-01-12 10:16:00,44.3,43.2,30.07,SSE,160,8.8,12.7,96,0.00,CLR,OVC,0.00,WeatherDisplay:10.37,2013-01-12 15:16:00,
2013-01-12 10:17:00,44.3,43.2,30.07,South,177,10.8,16.1,96,0.00,CLR,OVC,0.00,WeatherDisplay:10.37,2013-01-12 15:17:00,
2013-01-12 10:19:00,44.3,43.2,30.08,SSW,200,10.4,18.4,96,0.00,CLR,OVC,0.00,WeatherDisplay:10.37,2013-01-12 15:19:00,
2013-01-12 10:21:00,44.3,43.2,30.07,South,181,12.1,13.8,96,0.00,CLR,OVC,0.00,WeatherDisplay:10.37,2013-01-12 15:21:00,
2013-01-12 10:22:00,44.2,43.1,30.08,SSW,199,11.4,16.1,96,0.00,CLR,OVC,0.00,WeatherDisplay:10.37,2013-01-12 15:22:00,
2013-01-12 10:23:00,44.2,43.1,30.07,South,188,14.1,17.3,96,0.00,CLR,OVC,0.00,WeatherDisplay:10.37,2013-01-12 15:23:00,
2013-01-12 10:24:00,44.2,43.1,30.07,South,182,14.4,17.3,96,0.00,CLR,OVC,0.00,WeatherDisplay:10.37,2013-01-12 15:24:00,
2013-01-12 10:26:00,44.2,43.1,30.07,South,183,12.1,17.0,96,0.00,CLR,OVC,0.00,WeatherDisplay:10.37,2013-01-12 15:26:00,
2013-01-12 10:27:00,44.3,43.2,30.08,SSW,199,14.6,23.0,96,0.00,CLR,OVC,0.00,WeatherDisplay:10.37,2013-01-12 15:27:00,
2013-01-12 10:29:00,44.3,43.2,30.08,SSW,205,14.3,18.4,96,0.00,CLR,OVC,0.00,WeatherDisplay:10.37,2013-01-12 15:29:00,
2013-01-12 10:32:00,44.3,43.0,30.08,SSW,203,10.8,15.0,95,0.00,CLR,OVC,0.00,WeatherDisplay:10.37,2013-01-12 15:32:00,
2013-01-12 10:33:00,44.2,42.9,30.08,SW,214,12.6,16.0,95,0.00,CLR,OVC,0.00,WeatherDisplay:10.37,2013-01-12 15:33:00,
2013-01-12 10:34:00,44.1,42.8,30.08,SSW,206,12.2,16.1,95,0.00,CLR,OVC,0.00,WeatherDisplay:10.37,2013-01-12 15:34:00,
2013-01-12 10:35:00,44.0,42.7,30.08,SSW,200,9.7,12.7,95,0.00,CLR,OVC,0.00,WeatherDisplay:10.37,2013-01-12 15:35:00,
2013-01-12 10:37:00,43.8,42.5,30.08,South,186,14.1,18.4,95,0.00,CLR,OVC,0.00,WeatherDisplay:10.37,2013-01-12 15:37:00,
2013-01-12 10:38:00,43.8,42.5,30.08,SSW,202,13.2,18.4,95,0.00,CLR,OVC,0.00,WeatherDisplay:10.37,2013-01-12 15:38:00,
2013-01-12 10:39:00,43.9,42.8,30.08,SSW,196,12.8,17.3,96,0.00,CLR,OVC,0.00,WeatherDisplay:10.37,2013-01-12 15:39:00,
2013-01-12 10:40:00,43.9,42.8,30.08,SSW,197,15.3,18.4,96,0.00,CLR,OVC,0.00,WeatherDisplay:10.37,2013-01-12 15:40:00,
2013-01-12 10:42:00,44.0,42.7,30.09,SSW,201,10.3,19.6,95,0.00,CLR,OVC,0.00,WeatherDisplay:10.37,2013-01-12 15:42:00,
2013-01-12 10:43:00,44.0,42.9,30.07,SSW,200,11.9,16.1,96,0.00,CLR,OVC,0.00,WeatherDisplay:10.37,2013-01-12 15:43:00,
2013-01-12 10:44:00,44.0,42.9,30.07,South,189,12.7,15.0,96,0.00,CLR,OVC,0.00,WeatherDisplay:10.37,2013-01-12 15:44:00,
2013-01-12 10:45:00,44.0,42.9,30.07,South,183,11.9,17.3,96,0.00,CLR,OVC,0.00,WeatherDisplay:10.37,2013-01-12 15:45:00,
2013-01-12 10:47:00,44.0,42.9,30.07,South,188,11.3,15.0,96,0.00,CLR,OVC,0.00,WeatherDisplay:10.37,2013-01-12 15:47:00,
2013-01-12 10:48:00,44.0,42.7,30.07,SSW,196,10.8,15.0,95,0.00,CLR,OVC,0.00,WeatherDisplay:10.37,2013-01-12 15:48:00,
2013-01-12 10:49:00,44.0,42.9,30.06,SSW,197,11.4,13.0,96,0.00,CLR,OVC,0.00,WeatherDisplay:10.37,2013-01-12 15:49:00,
2013-01-12 10:50:00,44.0,42.9,30.06,South,189,10.9,19.6,96,0.00,CLR,OVC,0.00,WeatherDisplay:10.37,2013-01-12 15:50:00,
2013-01-12 10:52:00,44.0,42.9,30.06,SSW,212,10.0,12.7,96,0.00,CLR,OVC,0.00,WeatherDisplay:10.37,2013-01-12 15:52:00,
2013-01-12 10:53:00,44.1,43.0,30.06,SSW,202,11.4,16.1,96,0.00,CLR,OVC,0.00,WeatherDisplay:10.37,2013-01-12 15:53:00,
2013-01-12 10:54:00,44.1,43.0,30.06,South,189,9.6,17.3,96,0.00,CLR,OVC,0.00,WeatherDisplay:10.37,2013-01-12 15:54:00,
2013-01-12 10:55:00,44.1,43.0,30.06,SSW,199,8.6,15.0,96,0.00,CLR,OVC,0.00,WeatherDisplay:10.37,2013-01-12 15:55:00,
2013-01-12 10:57:00,44.1,43.0,30.06,South,190,11.5,16.0,96,0.00,CLR,OVC,0.00,WeatherDisplay:10.37,2013-01-12 15:57:00,
2013-01-12 10:58:00,44.2,43.1,30.06,SSW,192,12.7,16.1,96,0.00,CLR,OVC,0.00,WeatherDisplay:10.37,2013-01-12 15:58:00,
2013-01-12 10:59:00,44.2,43.1,30.05,SSW,194,10.0,16.1,96,0.00,CLR,OVC,0.00,WeatherDisplay:10.37,2013-01-12 15:59:00,
2013-01-12 11:00:00,44.3,43.2,30.05,SSW,204,13.1,19.6,96,0.00,CLR,OVC,0.00,WeatherDisplay:10.37,2013-01-12 16:00:00,
2013-01-12 11:02:00,44.4,43.3,30.05,SSW,193,13.5,18.4,96,0.00,CLR,OVC,0.00,WeatherDisplay:10.37,2013-01-12 16:02:00,
2013-01-12 11:03:00,44.4,43.3,30.05,South,191,11.1,18.4,96,0.00,CLR,OVC,0.00,WeatherDisplay:10.37,2013-01-12 16:03:00,
2013-01-12 11:04:00,44.4,43.3,30.05,SSW,202,10.7,13.8,96,0.00,CLR,OVC,0.00,WeatherDisplay:10.37,2013-01-12 16:04:00,
2013-01-12 11:06:00,44.4,43.3,30.05,SSW,199,10.2,13.8,96,0.00,CLR,OVC,0.00,WeatherDisplay:10.37,2013-01-12 16:06:00,
2013-01-12 11:07:00,44.4,43.3,30.06,SSW,204,13.1,16.1,96,0.00,CLR,OVC,0.00,WeatherDisplay:10.37,2013-01-12 16:07:00,
2013-01-12 11:08:00,44.4,43.1,30.06,SW,214,11.9,16.1,95,0.00,CLR,OVC,0.00,WeatherDisplay:10.37,2013-01-12 16:08:00,
2013-01-12 11:09:00,44.3,43.2,30.06,SSW,202,11.1,15.0,96,0.00,CLR,OVC,0.00,WeatherDisplay:10.37,2013-01-12 16:09:00,
2013-01-12 11:11:00,44.3,43.0,30.06,SSW,213,11.7,15.0,95,0.00,CLR,OVC,0.00,WeatherDisplay:10.37,2013-01-12 16:11:00,
2013-01-12 11:12:00,44.2,42.9,30.06,SSW,199,11.5,15.0,95,0.00,CLR,OVC,0.00,WeatherDisplay:10.37,2013-01-12 16:12:00,
2013-01-12 11:13:00,44.1,42.8,30.06,South,191,13.9,16.1,95,0.00,CLR,OVC,0.00,WeatherDisplay:10.37,2013-01-12 16:13:00,
2013-01-12 11:15:00,44.1,42.8,30.06,SSW,194,15.4,19.6,95,0.00,CLR,OVC,0.00,WeatherDisplay:10.37,2013-01-12 16:15:00,
2013-01-12 11:16:00,44.1,42.8,30.05,SSW,203,14.6,18.4,95,0.00,CLR,OVC,0.00,WeatherDisplay:10.37,2013-01-12 16:16:00,
2013-01-12 11:17:00,44.2,42.9,30.05,South,189,13.8,18.4,95,0.00,CLR,OVC,0.00,WeatherDisplay:10.37,2013-01-12 16:17:00,
2013-01-12 11:18:00,44.1,42.8,30.05,SSW,197,12.4,19.6,95,0.00,CLR,OVC,0.00,WeatherDisplay:10.37,2013-01-12 16:18:00,
2013-01-12 11:20:00,44.2,42.9,30.04,South,184,12.4,19.6,95,0.00,CLR,OVC,0.00,WeatherDisplay:10.37,2013-01-12 16:20:00,
2013-01-12 11:21:00,44.2,43.1,30.04,SSW,200,13.2,17.0,96,0.00,CLR,OVC,0.00,WeatherDisplay:10.37,2013-01-12 16:21:00,
2013-01-12 11:22:00,44.3,43.2,30.05,SSW,202,13.1,18.4,96,0.00,CLR,OVC,0.00,WeatherDisplay:10.37,2013-01-12 16:22:00,
2013-01-12 11:23:00,44.3,43.0,30.05,SSW,197,13.9,17.3,95,0.00,CLR,OVC,0.00,WeatherDisplay:10.37,2013-01-12 16:23:00,
2013-01-12 11:25:00,44.4,43.1,30.05,SSW,202,13.2,17.3,95,0.00,CLR,OVC,0.00,WeatherDisplay:10.37,2013-01-12 16:25:00,
2013-01-12 11:26:00,44.4,43.1,30.05,SSW,208,13.2,17.3,95,0.00,CLR,OVC,0.00,WeatherDisplay:10.37,2013-01-12 16:26:00,
2013-01-12 11:27:00,44.4,43.1,30.05,SSW,211,13.1,18.0,95,0.00,CLR,OVC,0.00,WeatherDisplay:10.37,2013-01-12 16:27:00,
2013-01-12 11:28:00,44.4,43.3,30.05,SSW,201,11.1,18.4,96,0.00,CLR,OVC,0.00,WeatherDisplay:10.37,2013-01-12 16:28:00,
2013-01-12 11:30:00,44.4,43.1,30.05,SSW,192,13.5,18.4,95,0.00,CLR,OVC,0.00,WeatherDisplay:10.37,2013-01-12 16:30:00,
2013-01-12 11:32:00,44.4,43.1,30.05,SSW,200,13.3,18.4,95,0.00,CLR,OVC,0.00,WeatherDisplay:10.37,2013-01-12 16:32:00,
2013-01-12 11:33:00,44.3,43.0,30.05,SSW,194,12.7,16.1,95,0.00,CLR,OVC,0.00,WeatherDisplay:10.37,2013-01-12 16:33:00,
2013-01-12 11:35:00,44.3,43.0,30.05,SSW,196,11.7,18.4,95,0.00,CLR,OVC,0.00,WeatherDisplay:10.37,2013-01-12 16:35:00,
2013-01-12 11:37:00,44.3,43.0,30.05,South,173,14.1,19.6,95,0.00,CLR,OVC,0.00,WeatherDisplay:10.37,2013-01-12 16:37:00,
2013-01-12 11:38:00,44.4,43.3,30.05,South,182,12.6,19.6,96,0.00,CLR,OVC,0.00,WeatherDisplay:10.37,2013-01-12 16:38:00,
2013-01-12 11:40:00,44.5,43.4,30.05,SSW,196,13.3,19.6,96,0.00,CLR,OVC,0.00,WeatherDisplay:10.37,2013-01-12 16:40:00,
2013-01-12 11:42:00,44.6,43.3,30.04,South,191,11.9,17.3,95,0.00,CLR,OVC,0.00,WeatherDisplay:10.37,2013-01-12 16:42:00,
2013-01-12 11:44:00,44.6,43.3,30.04,SSW,192,11.9,16.1,95,0.00,CLR,OVC,0.00,WeatherDisplay:10.37,2013-01-12 16:44:00,
2013-01-12 11:46:00,44.7,43.4,30.04,SSW,197,11.1,18.4,95,0.00,CLR,OVC,0.00,WeatherDisplay:10.37,2013-01-12 16:46:00,
2013-01-12 11:47:00,44.7,43.4,30.04,SSW,196,11.5,15.0,95,0.00,CLR,OVC,0.00,WeatherDisplay:10.37,2013-01-12 16:47:00,
2013-01-12 11:49:00,44.7,43.4,30.04,SSW,194,12.4,14.0,95,0.00,CLR,OVC,0.00,WeatherDisplay:10.37,2013-01-12 16:49:00,
2013-01-12 11:51:00,44.8,43.5,30.04,SSW,198,15.4,19.0,95,0.00,CLR,OVC,0.00,WeatherDisplay:10.37,2013-01-12 16:51:00,
2013-01-12 11:52:00,44.9,43.6,30.04,SSW,199,14.3,19.6,95,0.00,CLR,OVC,0.00,WeatherDisplay:10.37,2013-01-12 16:52:00,
2013-01-12 11:54:00,45.1,44.0,30.04,SSW,198,15.2,19.0,96,0.00,CLR,OVC,0.00,WeatherDisplay:10.37,2013-01-12 16:54:00,
2013-01-12 11:56:00,45.2,43.9,30.04,South,182,14.6,19.6,95,0.00,CLR,OVC,0.00,WeatherDisplay:10.37,2013-01-12 16:56:00,
2013-01-12 11:57:00,45.2,43.9,30.04,South,190,14.6,19.6,95,0.00,CLR,OVC,0.00,WeatherDisplay:10.37,2013-01-12 16:57:00,
2013-01-12 11:59:00,45.3,44.0,30.04,South,185,14.1,19.6,95,0.00,CLR,OVC,0.00,WeatherDisplay:10.37,2013-01-12 16:59:00,
2013-01-12 12:01:00,45.4,44.1,30.04,SSW,199,12.0,14.0,95,0.00,CLR,OVC,0.00,WeatherDisplay:10.37,2013-01-12 17:01:00,
2013-01-12 12:02:00,45.5,44.2,30.04,SSE,167,12.3,16.1,95,0.00,CLR,OVC,0.00,WeatherDisplay:10.37,2013-01-12 17:02:00,
2013-01-12 12:04:00,45.5,44.2,30.04,SSW,194,12.5,19.6,95,0.00,CLR,OVC,0.00,WeatherDisplay:10.37,2013-01-12 17:04:00,
2013-01-12 12:06:00,45.6,44.0,30.04,SSE,168,14.7,18.4,94,0.00,CLR,OVC,0.00,WeatherDisplay:10.37,2013-01-12 17:06:00,
2013-01-12 12:07:00,45.6,44.0,30.04,South,174,14.7,19.6,94,0.00,CLR,OVC,0.00,WeatherDisplay:10.37,2013-01-12 17:07:00,
2013-01-12 12:09:00,45.7,44.1,30.04,South,190,12.1,17.3,94,0.00,CLR,OVC,0.00,WeatherDisplay:10.37,2013-01-12 17:09:00,
2013-01-12 12:11:00,45.8,44.2,30.04,South,186,12.8,19.6,94,0.00,CLR,OVC,0.00,WeatherDisplay:10.37,2013-01-12 17:11:00,
2013-01-12 12:12:00,45.8,44.2,30.04,South,188,15.2,23.0,94,0.00,CLR,OVC,0.00,WeatherDisplay:10.37,2013-01-12 17:12:00,
2013-01-12 12:13:00,45.8,44.2,30.04,SSW,203,14.9,23.0,94,0.00,CLR,OVC,0.00,WeatherDisplay:10.37,2013-01-12 17:13:00,
2013-01-12 12:14:00,45.8,44.2,30.03,SSW,199,16.0,22.0,94,0.00,CLR,OVC,0.00,WeatherDisplay:10.37,2013-01-12 17:14:00,
2013-01-12 12:16:00,45.7,44.1,30.03,SSW,202,17.0,21.9,94,0.00,CLR,OVC,0.00,WeatherDisplay:10.37,2013-01-12 17:16:00,
2013-01-12 12:17:00,45.7,43.8,30.03,South,175,13.7,18.4,93,0.00,CLR,OVC,0.00,WeatherDisplay:10.37,2013-01-12 17:17:00,
2013-01-12 12:18:00,45.7,43.8,30.03,SSW,197,14.6,20.0,93,0.00,CLR,OVC,0.00,WeatherDisplay:10.37,2013-01-12 17:18:00,
2013-01-12 12:19:00,45.6,44.0,30.03,SSW,193,15.6,21.9,94,0.00,CLR,OVC,0.00,WeatherDisplay:10.37,2013-01-12 17:19:00,
2013-01-12 12:21:00,45.6,44.0,30.03,SSW,196,17.7,26.5,94,0.00,CLR,OVC,0.00,WeatherDisplay:10.37,2013-01-12 17:21:00,
2013-01-12 12:22:00,45.6,44.0,30.03,South,179,17.9,24.2,94,0.00,CLR,OVC,0.00,WeatherDisplay:10.37,2013-01-12 17:22:00,
2013-01-12 12:23:00,45.6,44.0,30.03,South,191,16.6,24.2,94,0.00,CLR,OVC,0.00,WeatherDisplay:10.37,2013-01-12 17:23:00,
2013-01-12 12:24:00,45.6,44.0,30.04,South,186,16.1,20.7,94,0.00,CLR,OVC,0.00,WeatherDisplay:10.37,2013-01-12 17:24:00,
2013-01-12 12:26:00,45.7,44.1,30.03,South,181,10.8,16.1,94,0.00,CLR,OVC,0.00,WeatherDisplay:10.37,2013-01-12 17:26:00,
2013-01-12 12:27:00,45.7,44.1,30.03,South,189,11.7,19.6,94,0.00,CLR,OVC,0.00,WeatherDisplay:10.37,2013-01-12 17:27:00,
2013-01-12 12:28:00,45.7,44.1,30.03,South,185,14.2,19.6,94,0.00,CLR,OVC,0.00,WeatherDisplay:10.37,2013-01-12 17:28:00,
2013-01-12 12:29:00,45.7,44.1,30.03,South,187,15.0,21.0,94,0.00,CLR,OVC,0.00,WeatherDisplay:10.37,2013-01-12 17:29:00,
2013-01-12 12:32:00,45.8,44.2,30.03,South,186,12.0,19.6,94,0.00,CLR,OVC,0.00,WeatherDisplay:10.37,2013-01-12 17:32:00,
2013-01-12 12:33:00,45.9,44.3,30.03,SSW,196,17.3,21.9,94,0.00,CLR,OVC,0.00,WeatherDisplay:10.37,2013-01-12 17:33:00,
2013-01-12 12:35:00,45.9,44.3,30.03,South,188,17.0,20.7,94,0.00,CLR,OVC,0.00,WeatherDisplay:10.37,2013-01-12 17:35:00,
2013-01-12 12:37:00,46.0,44.4,30.03,South,191,15.0,19.6,94,0.00,CLR,OVC,0.00,WeatherDisplay:10.37,2013-01-12 17:37:00,
2013-01-12 12:38:00,46.0,44.1,30.03,South,181,13.9,20.0,93,0.00,CLR,OVC,0.00,WeatherDisplay:10.37,2013-01-12 17:38:00,
2013-01-12 12:40:00,46.0,44.4,30.03,SSW,206,12.9,19.6,94,0.00,CLR,OVC,0.00,WeatherDisplay:10.37,2013-01-12 17:40:00,
2013-01-12 12:42:00,46.0,44.1,30.04,South,191,18.0,20.7,93,0.00,CLR,OVC,0.00,WeatherDisplay:10.37,2013-01-12 17:42:00,
2013-01-12 12:43:00,45.9,44.0,30.04,SSW,209,16.8,25.3,93,0.00,CLR,OVC,0.00,WeatherDisplay:10.37,2013-01-12 17:43:00,
2013-01-12 12:45:00,45.9,44.0,30.03,SSW,200,16.9,20.7,93,0.00,CLR,OVC,0.00,WeatherDisplay:10.37,2013-01-12 17:45:00,
2013-01-12 12:47:00,45.8,43.9,30.03,SSW,194,17.1,21.9,93,0.00,CLR,OVC,0.00,WeatherDisplay:10.37,2013-01-12 17:47:00,
2013-01-12 12:48:00,45.8,44.2,30.03,SSW,208,15.3,24.0,94,0.00,CLR,OVC,0.00,WeatherDisplay:10.37,2013-01-12 17:48:00,
2013-01-12 12:50:00,45.7,44.1,30.03,South,186,14.5,19.6,94,0.00,CLR,OVC,0.00,WeatherDisplay:10.37,2013-01-12 17:50:00,
2013-01-12 12:52:00,45.8,44.2,30.03,South,173,12.9,21.9,94,0.00,CLR,OVC,0.00,WeatherDisplay:10.37,2013-01-12 17:52:00,
2013-01-12 12:53:00,45.8,44.2,30.03,South,189,13.8,19.6,94,0.00,CLR,OVC,0.00,WeatherDisplay:10.37,2013-01-12 17:53:00,
2013-01-12 12:54:00,45.8,44.2,30.03,SSW,193,12.4,19.6,94,0.00,CLR,OVC,0.00,WeatherDisplay:10.37,2013-01-12 17:54:00,
2013-01-12 12:56:00,45.9,44.3,30.03,SSW,198,13.1,18.4,94,0.00,CLR,OVC,0.00,WeatherDisplay:10.37,2013-01-12 17:56:00,
2013-01-12 12:57:00,45.9,44.3,30.03,SSW,195,15.9,21.9,94,0.00,CLR,OVC,0.00,WeatherDisplay:10.37,2013-01-12 17:57:00,
2013-01-12 12:58:00,45.9,44.3,30.03,SSW,200,14.5,21.9,94,0.00,CLR,OVC,0.00,WeatherDisplay:10.37,2013-01-12 17:58:00,
2013-01-12 12:59:00,45.9,44.3,30.03,SSW,193,14.7,20.7,94,0.00,CLR,OVC,0.00,WeatherDisplay:10.37,2013-01-12 17:59:00,
2013-01-12 13:01:00,45.9,44.3,30.04,South,179,12.2,20.7,94,0.00,CLR,OVC,0.00,WeatherDisplay:10.37,2013-01-12 18:01:00,
2013-01-12 13:02:00,45.9,44.3,30.04,SSW,201,14.2,20.7,94,0.00,CLR,OVC,0.00,WeatherDisplay:10.37,2013-01-12 18:02:00,
2013-01-12 13:03:00,45.9,44.3,30.04,South,185,16.6,20.7,94,0.00,CLR,OVC,0.00,WeatherDisplay:10.37,2013-01-12 18:03:00,
2013-01-12 13:04:00,45.9,44.3,30.04,SSW,197,16.6,20.7,94,0.00,CLR,OVC,0.00,WeatherDisplay:10.37,2013-01-12 18:04:00,
2013-01-12 13:06:00,45.9,44.3,30.04,SSW,193,15.7,20.7,94,0.00,CLR,OVC,0.00,WeatherDisplay:10.37,2013-01-12 18:06:00,
2013-01-12 13:07:00,45.9,44.3,30.04,SSW,208,16.4,23.0,94,0.00,CLR,OVC,0.00,WeatherDisplay:10.37,2013-01-12 18:07:00,
2013-01-12 13:08:00,45.8,44.2,30.04,South,184,14.7,19.6,94,0.00,CLR,OVC,0.00,WeatherDisplay:10.37,2013-01-12 18:08:00,
2013-01-12 13:09:00,45.9,44.3,30.04,SSW,198,14.8,19.6,94,0.00,CLR,OVC,0.00,WeatherDisplay:10.37,2013-01-12 18:09:00,
2013-01-12 13:11:00,45.8,44.2,30.04,SSW,209,11.7,24.2,94,0.00,CLR,OVC,0.00,WeatherDisplay:10.37,2013-01-12 18:11:00,
2013-01-12 13:13:00,45.7,44.1,30.05,SW,220,13.9,18.4,94,0.00,CLR,OVC,0.00,WeatherDisplay:10.37,2013-01-12 18:13:00,
2013-01-12 13:14:00,45.6,43.7,30.05,SSW,213,14.5,17.3,93,0.00,CLR,OVC,0.00,WeatherDisplay:10.37,2013-01-12 18:14:00,
2013-01-12 13:16:00,45.5,43.9,30.05,SSW,202,13.4,19.6,94,0.00,CLR,OVC,0.00,WeatherDisplay:10.37,2013-01-12 18:16:00,
2013-01-12 13:18:00,45.4,43.8,30.05,SSW,199,11.9,18.4,94,0.00,CLR,OVC,0.00,WeatherDisplay:10.37,2013-01-12 18:18:00,
2013-01-12 13:19:00,45.4,43.8,30.05,SSW,203,12.4,17.3,94,0.00,CLR,OVC,0.00,WeatherDisplay:10.37,2013-01-12 18:19:00,
2013-01-12 13:21:00,45.4,43.8,30.05,SSW,195,12.5,16.1,94,0.00,CLR,OVC,0.00,WeatherDisplay:10.37,2013-01-12 18:21:00,
2013-01-12 13:23:00,45.4,43.8,30.05,South,185,11.0,16.1,94,0.00,CLR,OVC,0.00,WeatherDisplay:10.37,2013-01-12 18:23:00,
2013-01-12 13:24:00,45.5,43.9,30.05,SSW,192,13.5,17.0,94,0.00,CLR,OVC,0.00,WeatherDisplay:10.37,2013-01-12 18:24:00,
2013-01-12 13:26:00,45.6,44.0,30.05,SSW,195,15.0,19.6,94,0.00,CLR,OVC,0.00,WeatherDisplay:10.37,2013-01-12 18:26:00,
2013-01-12 13:28:00,45.8,44.2,30.05,South,186,10.2,18.4,94,0.00,CLR,OVC,0.00,WeatherDisplay:10.37,2013-01-12 18:28:00,
2013-01-12 13:29:00,45.8,44.2,30.05,South,191,10.9,15.0,94,0.00,CLR,OVC,0.00,WeatherDisplay:10.37,2013-01-12 18:29:00,
2013-01-12 13:31:00,45.9,44.3,30.05,South,183,16.7,23.0,94,0.00,CLR,OVC,0.00,WeatherDisplay:10.37,2013-01-12 18:31:00,
2013-01-12 13:33:00,46.1,44.5,30.05,South,174,15.8,19.6,94,0.00,CLR,OVC,0.00,WeatherDisplay:10.37,2013-01-12 18:33:00,
2013-01-12 13:34:00,46.2,44.6,30.05,SSW,195,15.4,19.6,94,0.00,CLR,OVC,0.00,WeatherDisplay:10.37,2013-01-12 18:34:00,
2013-01-12 13:36:00,46.3,44.7,30.05,South,186,17.7,25.3,94,0.00,CLR,OVC,0.00,WeatherDisplay:10.37,2013-01-12 18:36:00,
2013-01-12 13:38:00,46.4,44.8,30.05,South,190,13.6,19.6,94,0.00,CLR,OVC,0.00,WeatherDisplay:10.37,2013-01-12 18:38:00,
2013-01-12 13:39:00,46.4,44.8,30.04,South,184,12.6,19.6,94,0.00,CLR,OVC,0.00,WeatherDisplay:10.37,2013-01-12 18:39:00,
2013-01-12 13:40:00,46.4,44.8,30.05,South,176,13.5,20.0,94,0.00,CLR,OVC,0.00,WeatherDisplay:10.37,2013-01-12 18:40:00,
2013-01-12 13:41:00,46.5,44.9,30.04,South,188,13.9,20.7,94,0.00,CLR,OVC,0.00,WeatherDisplay:10.37,2013-01-12 18:41:00,
2013-01-12 13:44:00,46.6,45.0,30.05,South,183,14.1,19.6,94,0.00,CLR,OVC,0.00,WeatherDisplay:10.37,2013-01-12 18:44:00,
2013-01-12 13:45:00,46.6,45.0,30.04,South,179,13.5,19.6,94,0.00,CLR,OVC,0.00,WeatherDisplay:10.37,2013-01-12 18:45:00,
2013-01-12 13:47:00,46.6,44.7,30.04,SSW,205,12.7,20.0,93,0.00,CLR,OVC,0.00,WeatherDisplay:10.37,2013-01-12 18:47:00,
2013-01-12 13:49:00,46.5,44.6,30.04,SSW,199,15.0,21.9,93,0.00,CLR,OVC,0.00,WeatherDisplay:10.37,2013-01-12 18:49:00,
2013-01-12 13:50:00,46.5,44.6,30.04,SSW,193,14.9,20.7,93,0.00,CLR,OVC,0.00,WeatherDisplay:10.37,2013-01-12 18:50:00,
2013-01-12 13:52:00,46.4,44.5,30.04,SSW,195,14.5,20.7,93,0.00,CLR,OVC,0.00,WeatherDisplay:10.37,2013-01-12 18:52:00,
2013-01-12 13:54:00,46.3,44.4,30.05,SSW,212,12.9,20.7,93,0.00,CLR,OVC,0.00,WeatherDisplay:10.37,2013-01-12 18:54:00,
2013-01-12 13:55:00,46.3,44.4,30.05,SSW,197,12.5,16.1,93,0.00,CLR,OVC,0.00,WeatherDisplay:10.37,2013-01-12 18:55:00,
2013-01-12 13:57:00,46.2,44.6,30.05,South,191,16.9,23.0,94,0.00,CLR,OVC,0.00,WeatherDisplay:10.37,2013-01-12 18:57:00,
2013-01-12 13:59:00,46.2,44.6,30.05,SSW,197,11.4,16.1,94,0.00,CLR,OVC,0.00,WeatherDisplay:10.37,2013-01-12 18:59:00,
2013-01-12 14:00:00,46.2,44.6,30.05,SSW,205,11.5,16.1,94,0.00,CLR,OVC,0.00,WeatherDisplay:10.37,2013-01-12 19:00:00,
2013-01-12 14:02:00,46.1,44.5,30.05,South,191,13.4,18.4,94,0.00,CLR,OVC,0.00,WeatherDisplay:10.37,2013-01-12 19:02:00,
2013-01-12 14:04:00,46.2,44.6,30.05,SSW,201,12.3,20.7,94,0.00,CLR,OVC,0.00,WeatherDisplay:10.37,2013-01-12 19:04:00,
2013-01-12 14:05:00,46.2,44.6,30.05,SSW,198,13.2,18.4,94,0.00,CLR,OVC,0.00,WeatherDisplay:10.37,2013-01-12 19:05:00,
2013-01-12 14:06:00,46.2,44.6,30.05,South,188,13.4,21.0,94,0.00,CLR,OVC,0.00,WeatherDisplay:10.37,2013-01-12 19:06:00,
2013-01-12 14:07:00,46.3,44.7,30.05,SSW,202,15.7,23.0,94,0.00,CLR,OVC,0.00,WeatherDisplay:10.37,2013-01-12 19:07:00,
2013-01-12 14:09:00,46.3,44.7,30.05,SSW,194,10.0,23.0,94,0.00,CLR,OVC,0.00,WeatherDisplay:10.37,2013-01-12 19:09:00,
2013-01-12 14:10:00,46.4,44.8,30.05,South,172,10.6,16.1,94,0.00,CLR,OVC,0.00,WeatherDisplay:10.37,2013-01-12 19:10:00,
2013-01-12 14:12:00,46.5,44.9,30.05,South,188,12.9,16.1,94,0.00,CLR,OVC,0.00,WeatherDisplay:10.37,2013-01-12 19:12:00,
2013-01-12 14:14:00,46.7,45.1,30.05,South,175,11.4,16.1,94,0.00,CLR,OVC,0.00,WeatherDisplay:10.37,2013-01-12 19:14:00,
2013-01-12 14:15:00,46.8,45.2,30.05,South,189,11.6,16.1,94,0.00,CLR,OVC,0.00,WeatherDisplay:10.37,2013-01-12 19:15:00,
2013-01-12 14:17:00,46.8,44.9,30.05,SSW,192,17.4,27.6,93,0.00,CLR,OVC,0.00,WeatherDisplay:10.37,2013-01-12 19:17:00,
2013-01-12 14:19:00,46.8,44.9,30.05,SSW,192,16.1,20.7,93,0.00,CLR,OVC,0.00,WeatherDisplay:10.37,2013-01-12 19:19:00,
2013-01-12 14:20:00,46.8,44.9,30.05,South,185,15.1,20.7,93,0.00,CLR,OVC,0.00,WeatherDisplay:10.37,2013-01-12 19:20:00,
2013-01-12 14:22:00,46.8,44.9,30.05,SSW,196,12.8,19.6,93,0.00,CLR,OVC,0.00,WeatherDisplay:10.37,2013-01-12 19:22:00,
2013-01-12 14:25:00,46.8,44.9,30.06,SSW,192,14.6,21.9,93,0.00,CLR,OVC,0.00,WeatherDisplay:10.37,2013-01-12 19:25:00,
2013-01-12 14:27:00,46.7,44.8,30.05,South,186,14.0,19.6,93,0.00,CLR,OVC,0.00,WeatherDisplay:10.37,2013-01-12 19:27:00,
2013-01-12 14:28:00,46.7,44.8,30.05,SSW,195,15.1,20.7,93,0.00,CLR,OVC,0.00,WeatherDisplay:10.37,2013-01-12 19:28:00,
2013-01-12 14:30:00,46.6,44.7,30.04,SSW,196,16.6,24.2,93,0.00,CLR,OVC,0.00,WeatherDisplay:10.37,2013-01-12 19:30:00,
2013-01-12 14:32:00,46.5,44.6,30.04,SSW,200,15.2,19.6,93,0.00,CLR,OVC,0.00,WeatherDisplay:10.37,2013-01-12 19:32:00,
2013-01-12 14:33:00,46.5,44.6,30.04,South,186,16.9,21.9,93,0.00,CLR,OVC,0.00,WeatherDisplay:10.37,2013-01-12 19:33:00,
2013-01-12 14:35:00,46.4,44.5,30.04,South,181,16.0,21.9,93,0.00,CLR,OVC,0.00,WeatherDisplay:10.37,2013-01-12 19:35:00,
2013-01-12 14:38:00,46.3,44.4,30.04,South,191,15.2,23.0,93,0.00,CLR,OVC,0.00,WeatherDisplay:10.37,2013-01-12 19:38:00,
2013-01-12 14:40:00,46.3,44.4,30.04,SSW,205,17.3,24.2,93,0.00,CLR,OVC,0.00,WeatherDisplay:10.37,2013-01-12 19:40:00,
2013-01-12 14:43:00,46.3,44.4,30.04,South,189,15.3,20.7,93,0.00,CLR,OVC,0.00,WeatherDisplay:10.37,2013-01-12 19:43:00,
2013-01-12 14:45:00,46.2,44.3,30.04,South,188,18.6,22.0,93,0.00,CLR,OVC,0.00,WeatherDisplay:10.37,2013-01-12 19:45:00,
2013-01-12 14:48:00,46.1,44.2,30.04,SSW,200,19.1,25.3,93,0.00,CLR,OVC,0.00,WeatherDisplay:10.37,2013-01-12 19:48:00,
2013-01-12 14:49:00,46.1,44.2,30.04,SSW,199,17.2,23.0,93,0.00,CLR,OVC,0.00,WeatherDisplay:10.37,2013-01-12 19:49:00,
2013-01-12 14:50:00,46.1,44.5,30.05,South,188,18.8,24.2,94,0.00,CLR,OVC,0.00,WeatherDisplay:10.37,2013-01-12 19:50:00,
2013-01-12 14:53:00,46.1,44.5,30.04,South,191,15.2,23.0,94,0.00,CLR,OVC,0.00,WeatherDisplay:10.37,2013-01-12 19:53:00,
2013-01-12 14:54:00,46.1,44.5,30.04,SSW,195,16.8,26.5,94,0.00,CLR,OVC,0.00,WeatherDisplay:10.37,2013-01-12 19:54:00,
2013-01-12 14:55:00,46.1,44.5,30.04,SSW,193,15.3,19.6,94,0.00,CLR,OVC,0.00,WeatherDisplay:10.37,2013-01-12 19:55:00,
2013-01-12 14:58:00,46.1,44.5,30.04,SSW,196,15.6,21.9,94,0.00,CLR,OVC,0.00,WeatherDisplay:10.37,2013-01-12 19:58:00,
2013-01-12 14:59:00,46.1,44.5,30.04,South,181,15.1,21.9,94,0.00,CLR,OVC,0.00,WeatherDisplay:10.37,2013-01-12 19:59:00,
2013-01-12 15:00:00,46.1,44.5,30.05,SSW,199,15.0,21.9,94,0.00,CLR,OVC,0.00,WeatherDisplay:10.37,2013-01-12 20:00:00,
2013-01-12 15:03:00,46.0,44.4,30.05,SSW,197,16.4,19.6,94,0.00,CLR,OVC,0.00,WeatherDisplay:10.37,2013-01-12 20:03:00,
2013-01-12 15:04:00,46.0,44.4,30.04,South,180,16.0,21.9,94,0.00,CLR,OVC,0.00,WeatherDisplay:10.37,2013-01-12 20:04:00,
2013-01-12 15:05:00,46.0,44.4,30.04,South,190,17.5,26.5,94,0.00,CLR,OVC,0.00,WeatherDisplay:10.37,2013-01-12 20:05:00,
2013-01-12 15:08:00,46.0,44.4,30.05,South,191,19.3,27.0,94,0.00,CLR,OVC,0.00,WeatherDisplay:10.37,2013-01-12 20:08:00,
2013-01-12 15:09:00,46.0,44.4,30.05,South,185,18.5,28.8,94,0.00,CLR,OVC,0.00,WeatherDisplay:10.37,2013-01-12 20:09:00,
2013-01-12 15:11:00,46.0,44.4,30.04,SSW,192,14.8,20.7,94,0.00,CLR,OVC,0.00,WeatherDisplay:10.37,2013-01-12 20:11:00,
2013-01-12 15:13:00,45.9,44.3,30.05,South,191,17.0,23.0,94,0.00,CLR,OVC,0.00,WeatherDisplay:10.37,2013-01-12 20:13:00,
2013-01-12 15:14:00,45.9,44.3,30.04,South,183,17.0,23.0,94,0.00,CLR,OVC,0.00,WeatherDisplay:10.37,2013-01-12 20:14:00,
2013-01-12 15:16:00,45.8,44.2,30.04,SSW,192,16.0,23.0,94,0.00,CLR,OVC,0.00,WeatherDisplay:10.37,2013-01-12 20:16:00,
2013-01-12 15:18:00,45.8,44.2,30.04,SSW,199,12.0,15.0,94,0.00,CLR,OVC,0.00,WeatherDisplay:10.37,2013-01-12 20:18:00,
2013-01-12 15:19:00,45.8,44.2,30.04,South,184,12.0,15.0,94,0.00,CLR,OVC,0.00,WeatherDisplay:10.37,2013-01-12 20:19:00,
2013-01-12 15:21:00,45.7,44.1,30.04,South,190,14.3,20.7,94,0.00,CLR,OVC,0.00,WeatherDisplay:10.37,2013-01-12 20:21:00,
2013-01-12 15:23:00,45.7,44.1,30.04,SSW,193,15.4,19.6,94,0.00,CLR,OVC,0.00,WeatherDisplay:10.37,2013-01-12 20:23:00,
2013-01-12 15:24:00,45.7,44.1,30.04,SSW,192,14.2,19.6,94,0.00,CLR,OVC,0.00,WeatherDisplay:10.37,2013-01-12 20:24:00,
2013-01-12 15:26:00,45.6,44.0,30.04,SSW,198,14.0,19.6,94,0.00,CLR,OVC,0.00,WeatherDisplay:10.37,2013-01-12 20:26:00,
2013-01-12 15:28:00,45.6,44.3,30.04,South,170,13.2,20.7,95,0.00,CLR,OVC,0.00,WeatherDisplay:10.37,2013-01-12 20:28:00,
2013-01-12 15:29:00,45.5,43.9,30.03,South,190,11.9,20.7,94,0.00,CLR,OVC,0.00,WeatherDisplay:10.37,2013-01-12 20:29:00,
2013-01-12 15:31:00,45.5,43.9,30.03,SSW,202,15.3,24.2,94,0.00,CLR,OVC,0.00,WeatherDisplay:10.37,2013-01-12 20:31:00,
2013-01-12 15:34:00,45.4,44.1,30.03,South,186,12.7,18.4,95,0.00,CLR,OVC,0.00,WeatherDisplay:10.37,2013-01-12 20:34:00,
2013-01-12 15:35:00,45.4,44.1,30.03,South,188,13.3,18.4,95,0.00,CLR,OVC,0.00,WeatherDisplay:10.37,2013-01-12 20:35:00,
2013-01-12 15:36:00,45.4,43.8,30.03,South,179,12.9,19.6,94,0.00,CLR,OVC,0.00,WeatherDisplay:10.37,2013-01-12 20:36:00,
2013-01-12 15:39:00,45.3,44.0,30.03,South,190,16.2,25.3,95,0.00,CLR,OVC,0.00,WeatherDisplay:10.37,2013-01-12 20:39:00,
2013-01-12 15:40:00,45.3,44.0,30.03,SSW,192,14.2,23.0,95,0.00,CLR,OVC,0.00,WeatherDisplay:10.37,2013-01-12 20:40:00,
2013-01-12 15:41:00,45.3,44.0,30.03,South,170,10.0,17.3,95,0.00,CLR,OVC,0.00,WeatherDisplay:10.37,2013-01-12 20:41:00,
2013-01-12 15:44:00,45.3,44.0,30.03,South,175,12.0,19.6,95,0.00,CLR,OVC,0.00,WeatherDisplay:10.37,2013-01-12 20:44:00,
2013-01-12 15:45:00,45.3,44.0,30.03,South,187,12.0,17.3,95,0.00,CLR,OVC,0.00,WeatherDisplay:10.37,2013-01-12 20:45:00,
2013-01-12 15:46:00,45.2,43.9,30.03,SSE,164,12.0,19.6,95,0.00,CLR,OVC,0.00,WeatherDisplay:10.37,2013-01-12 20:46:00,
2013-01-12 15:49:00,45.2,44.1,30.02,SSE,160,16.2,22.0,96,0.00,CLR,OVC,0.00,WeatherDisplay:10.37,2013-01-12 20:49:00,
2013-01-12 15:50:00,45.2,43.9,30.02,South,179,16.6,24.2,95,0.00,CLR,OVC,0.00,WeatherDisplay:10.37,2013-01-12 20:50:00,
2013-01-12 15:51:00,45.2,43.9,30.03,South,186,13.8,20.7,95,0.00,CLR,OVC,0.00,WeatherDisplay:10.37,2013-01-12 20:51:00,
2013-01-12 15:54:00,45.1,43.8,30.03,South,186,12.6,16.1,95,0.00,CLR,OVC,0.00,WeatherDisplay:10.37,2013-01-12 20:54:00,
2013-01-12 15:55:00,45.1,43.8,30.03,SSW,197,13.8,21.0,95,0.00,CLR,OVC,0.00,WeatherDisplay:10.37,2013-01-12 20:55:00,
2013-01-12 15:56:00,45.1,44.0,30.03,South,171,16.7,23.0,96,0.00,CLR,OVC,0.00,WeatherDisplay:10.37,2013-01-12 20:56:00,
2013-01-12 15:59:00,45.0,43.9,30.03,South,178,14.6,19.6,96,0.00,CLR,OVC,0.00,WeatherDisplay:10.37,2013-01-12 20:59:00,
2013-01-12 16:00:00,45.0,43.7,30.03,South,178,15.5,21.9,95,0.00,CLR,OVC,0.00,WeatherDisplay:10.37,2013-01-12 21:00:00,
2013-01-12 16:01:00,44.9,43.6,30.03,South,181,16.0,23.0,95,0.00,CLR,OVC,0.00,WeatherDisplay:10.37,2013-01-12 21:01:00,
2013-01-12 16:04:00,44.8,43.5,30.03,South,190,13.8,21.9,95,0.00,CLR,OVC,0.00,WeatherDisplay:10.37,2013-01-12 21:04:00,
2013-01-12 16:05:00,44.7,43.4,30.04,South,176,15.5,19.6,95,0.00,CLR,OVC,0.00,WeatherDisplay:10.37,2013-01-12 21:05:00,
2013-01-12 16:06:00,44.7,43.6,30.03,South,182,15.8,20.7,96,0.00,CLR,OVC,0.00,WeatherDisplay:10.37,2013-01-12 21:06:00,
2013-01-12 16:09:00,44.6,43.5,30.03,South,190,16.1,21.9,96,0.00,CLR,OVC,0.00,WeatherDisplay:10.37,2013-01-12 21:09:00,
2013-01-12 16:10:00,44.6,43.5,30.03,South,180,12.7,20.7,96,0.00,CLR,OVC,0.00,WeatherDisplay:10.37,2013-01-12 21:10:00,
2013-01-12 16:11:00,44.6,43.5,30.03,South,184,17.9,25.3,96,0.00,CLR,OVC,0.00,WeatherDisplay:10.37,2013-01-12 21:11:00,
2013-01-12 16:12:00,44.6,43.5,30.03,South,179,17.9,25.3,96,0.00,CLR,OVC,0.00,WeatherDisplay:10.37,2013-01-12 21:12:00,
2013-01-12 16:14:00,44.6,43.5,30.03,SSW,200,14.3,18.4,96,0.00,CLR,OVC,0.00,WeatherDisplay:10.37,2013-01-12 21:14:00,
2013-01-12 16:15:00,44.5,43.4,30.03,South,188,15.3,19.6,96,0.00,CLR,OVC,0.00,WeatherDisplay:10.37,2013-01-12 21:15:00,
2013-01-12 16:16:00,44.5,43.4,30.03,SSW,192,14.0,19.6,96,0.00,CLR,OVC,0.00,WeatherDisplay:10.37,2013-01-12 21:16:00,
2013-01-12 16:17:00,44.5,43.4,30.03,SSW,197,14.4,19.6,96,0.00,CLR,OVC,0.00,WeatherDisplay:10.37,2013-01-12 21:17:00,
2013-01-12 16:19:00,44.4,43.3,30.03,South,184,13.3,19.6,96,0.00,CLR,OVC,0.00,WeatherDisplay:10.37,2013-01-12 21:19:00,
2013-01-12 16:20:00,44.4,43.3,30.03,South,186,13.1,18.4,96,0.00,CLR,OVC,0.00,WeatherDisplay:10.37,2013-01-12 21:20:00,
2013-01-12 16:21:00,44.4,43.3,30.03,South,180,11.8,19.6,96,0.00,CLR,OVC,0.00,WeatherDisplay:10.37,2013-01-12 21:21:00,
2013-01-12 16:22:00,44.3,43.2,30.03,South,181,12.9,19.6,96,0.00,CLR,OVC,0.00,WeatherDisplay:10.37,2013-01-12 21:22:00,
2013-01-12 16:24:00,44.3,43.5,30.03,SSW,193,14.9,19.6,97,0.00,CLR,OVC,0.00,WeatherDisplay:10.37,2013-01-12 21:24:00,
2013-01-12 16:25:00,44.3,43.2,30.03,South,186,11.7,20.0,96,0.00,CLR,OVC,0.00,WeatherDisplay:10.37,2013-01-12 21:25:00,
2013-01-12 16:27:00,44.3,43.2,30.03,SSW,196,12.5,19.6,96,0.00,CLR,OVC,0.00,WeatherDisplay:10.37,2013-01-12 21:27:00,
2013-01-12 16:29:00,44.2,43.4,30.03,SSW,201,10.8,20.7,97,0.00,CLR,OVC,0.00,WeatherDisplay:10.37,2013-01-12 21:29:00,
2013-01-12 16:30:00,44.2,43.4,30.03,SSW,194,13.7,18.4,97,0.00,CLR,OVC,0.00,WeatherDisplay:10.37,2013-01-12 21:30:00,
2013-01-12 16:32:00,44.3,43.5,30.03,SSE,162,13.6,19.6,97,0.00,CLR,OVC,0.00,WeatherDisplay:10.37,2013-01-12 21:32:00,
2013-01-12 16:34:00,44.2,43.4,30.03,South,175,12.7,16.1,97,0.00,CLR,OVC,0.00,WeatherDisplay:10.37,2013-01-12 21:34:00,
2013-01-12 16:36:00,44.2,43.4,30.03,SSW,197,13.0,17.3,97,0.00,CLR,OVC,0.00,WeatherDisplay:10.37,2013-01-12 21:36:00,
2013-01-12 16:37:00,44.2,43.4,30.03,SSE,163,13.3,17.3,97,0.00,CLR,OVC,0.00,WeatherDisplay:10.37,2013-01-12 21:37:00,
2013-01-12 16:39:00,44.2,43.4,30.03,South,183,13.8,18.4,97,0.00,CLR,OVC,0.00,WeatherDisplay:10.37,2013-01-12 21:39:00,
2013-01-12 16:41:00,44.1,43.3,30.03,South,184,17.1,21.9,97,0.00,CLR,OVC,0.00,WeatherDisplay:10.37,2013-01-12 21:41:00,
2013-01-12 16:42:00,44.2,43.4,30.03,South,190,15.1,19.6,97,0.00,CLR,OVC,0.00,WeatherDisplay:10.37,2013-01-12 21:42:00,
2013-01-12 16:45:00,44.1,43.3,30.03,South,186,11.6,15.0,97,0.00,CLR,OVC,0.00,WeatherDisplay:10.37,2013-01-12 21:45:00,
2013-01-12 16:46:00,44.1,43.3,30.03,South,190,11.0,15.0,97,0.00,CLR,OVC,0.00,WeatherDisplay:10.37,2013-01-12 21:46:00,
2013-01-12 16:47:00,44.1,43.3,30.03,SSW,207,13.9,17.0,97,0.00,CLR,OVC,0.00,WeatherDisplay:10.37,2013-01-12 21:47:00,
2013-01-12 16:50:00,44.1,43.3,30.03,SSW,193,14.1,23.0,97,0.00,CLR,OVC,0.00,WeatherDisplay:10.37,2013-01-12 21:50:00,
2013-01-12 16:51:00,44.0,43.2,30.03,South,191,10.5,15.0,97,0.00,CLR,OVC,0.00,WeatherDisplay:10.37,2013-01-12 21:51:00,
2013-01-12 16:52:00,44.0,43.2,30.03,SSW,192,11.3,19.6,97,0.00,CLR,OVC,0.00,WeatherDisplay:10.37,2013-01-12 21:52:00,
2013-01-12 16:55:00,43.9,43.1,30.03,SSW,193,13.3,19.6,97,0.00,CLR,OVC,0.00,WeatherDisplay:10.37,2013-01-12 21:55:00,
2013-01-12 16:56:00,44.0,43.2,30.03,South,179,13.7,19.6,97,0.00,CLR,OVC,0.00,WeatherDisplay:10.37,2013-01-12 21:56:00,
2013-01-12 16:57:00,44.0,43.2,30.03,SSW,194,12.9,17.3,97,0.00,CLR,OVC,0.00,WeatherDisplay:10.37,2013-01-12 21:57:00,
2013-01-12 17:00:00,43.9,43.1,30.03,South,187,13.3,20.7,97,0.00,CLR,OVC,0.00,WeatherDisplay:10.37,2013-01-12 22:00:00,
2013-01-12 17:01:00,43.9,43.1,30.03,SSW,196,15.1,17.3,97,0.00,CLR,OVC,0.00,WeatherDisplay:10.37,2013-01-12 22:01:00,
2013-01-12 17:02:00,43.9,43.1,30.03,South,178,16.1,21.9,97,0.00,CLR,OVC,0.00,WeatherDisplay:10.37,2013-01-12 22:02:00,
2013-01-12 17:05:00,43.9,43.1,30.02,South,185,16.9,21.9,97,0.00,CLR,OVC,0.00,WeatherDisplay:10.37,2013-01-12 22:05:00,
2013-01-12 17:06:00,43.9,43.4,30.02,South,191,16.7,21.9,98,0.00,CLR,OVC,0.00,WeatherDisplay:10.37,2013-01-12 22:06:00,
2013-01-12 17:07:00,43.9,43.1,30.02,South,188,14.2,19.6,97,0.00,CLR,OVC,0.00,WeatherDisplay:10.37,2013-01-12 22:07:00,
2013-01-12 17:08:00,43.9,43.4,30.02,South,189,14.0,19.6,98,0.00,CLR,OVC,0.00,WeatherDisplay:10.37,2013-01-12 22:08:00,
2013-01-12 17:10:00,43.8,43.0,30.02,South,191,19.1,24.0,97,0.00,CLR,OVC,0.00,WeatherDisplay:10.37,2013-01-12 22:10:00,
2013-01-12 17:11:00,43.8,43.3,30.03,SSW,194,16.3,25.3,98,0.00,CLR,OVC,0.00,WeatherDisplay:10.37,2013-01-12 22:11:00,
2013-01-12 17:13:00,43.8,43.3,30.03,SSW,198,16.2,20.7,98,0.00,CLR,OVC,0.00,WeatherDisplay:10.37,2013-01-12 22:13:00,
2013-01-12 17:15:00,43.8,43.3,30.03,SSW,196,17.1,21.9,98,0.00,CLR,OVC,0.00,WeatherDisplay:10.37,2013-01-12 22:15:00,
2013-01-12 17:16:00,43.8,43.3,30.03,SSW,200,16.9,20.7,98,0.00,CLR,OVC,0.00,WeatherDisplay:10.37,2013-01-12 22:16:00,
2013-01-12 17:18:00,43.7,42.9,30.03,SSW,209,12.8,21.9,97,0.00,CLR,OVC,0.00,WeatherDisplay:10.37,2013-01-12 22:18:00,
2013-01-12 17:20:00,43.7,43.2,30.04,SSW,199,16.0,21.9,98,0.00,CLR,OVC,0.00,WeatherDisplay:10.37,2013-01-12 22:20:00,
2013-01-12 17:21:00,43.7,43.2,30.04,SSW,205,17.5,19.6,98,0.00,CLR,OVC,0.00,WeatherDisplay:10.37,2013-01-12 22:21:00,
2013-01-12 17:23:00,43.7,43.2,30.04,SSW,195,19.5,24.2,98,0.00,CLR,OVC,0.00,WeatherDisplay:10.37,2013-01-12 22:23:00,
2013-01-12 17:25:00,43.7,43.2,30.04,South,188,13.9,19.6,98,0.00,CLR,OVC,0.00,WeatherDisplay:10.37,2013-01-12 22:25:00,
2013-01-12 17:26:00,43.7,43.2,30.03,South,183,17.1,23.0,98,0.00,CLR,OVC,0.00,WeatherDisplay:10.37,2013-01-12 22:26:00,
2013-01-12 17:28:00,43.7,43.2,30.03,South,185,14.4,23.0,98,0.00,CLR,OVC,0.00,WeatherDisplay:10.37,2013-01-12 22:28:00,
2013-01-12 17:29:00,43.7,43.2,30.03,SSW,194,15.4,23.0,98,0.00,CLR,OVC,0.00,WeatherDisplay:10.37,2013-01-12 22:29:00,
2013-01-12 17:30:00,43.7,43.2,30.03,South,188,14.2,20.7,98,0.00,CLR,OVC,0.00,WeatherDisplay:10.37,2013-01-12 22:30:00,
2013-01-12 17:32:00,43.7,43.2,30.03,South,184,15.2,23.0,98,0.00,CLR,OVC,0.00,WeatherDisplay:10.37,2013-01-12 22:32:00,
2013-01-12 17:33:00,43.6,43.1,30.03,South,180,14.1,24.2,98,0.00,CLR,OVC,0.00,WeatherDisplay:10.37,2013-01-12 22:33:00,
2013-01-12 17:34:00,43.7,43.2,30.03,South,183,15.7,20.0,98,0.00,CLR,OVC,0.00,WeatherDisplay:10.37,2013-01-12 22:34:00,
2013-01-12 17:35:00,43.7,43.2,30.03,South,185,11.5,21.9,98,0.00,CLR,OVC,0.00,WeatherDisplay:10.37,2013-01-12 22:35:00,
2013-01-12 17:37:00,43.7,43.2,30.03,South,182,13.9,19.6,98,0.00,CLR,OVC,0.00,WeatherDisplay:10.37,2013-01-12 22:37:00,
2013-01-12 17:38:00,43.7,43.2,30.03,South,189,13.7,19.6,98,0.00,CLR,OVC,0.00,WeatherDisplay:10.37,2013-01-12 22:38:00,
2013-01-12 17:39:00,43.7,43.2,30.03,South,176,15.1,19.6,98,0.00,CLR,OVC,0.00,WeatherDisplay:10.37,2013-01-12 22:39:00,
2013-01-12 17:41:00,43.7,43.2,30.03,South,186,14.8,17.3,98,0.00,CLR,OVC,0.00,WeatherDisplay:10.37,2013-01-12 22:41:00,
2013-01-12 17:42:00,43.7,43.2,30.03,South,187,14.5,19.6,98,0.00,CLR,OVC,0.00,WeatherDisplay:10.37,2013-01-12 22:42:00,
2013-01-12 17:43:00,43.7,43.4,30.03,South,173,14.1,19.6,99,0.00,CLR,OVC,0.00,WeatherDisplay:10.37,2013-01-12 22:43:00,
2013-01-12 17:44:00,43.6,43.1,30.03,South,189,11.6,17.3,98,0.00,CLR,OVC,0.00,WeatherDisplay:10.37,2013-01-12 22:44:00,
2013-01-12 17:46:00,43.6,43.1,30.03,South,191,15.8,19.6,98,0.00,CLR,OVC,0.00,WeatherDisplay:10.37,2013-01-12 22:46:00,
2013-01-12 17:47:00,43.6,43.3,30.03,South,188,15.2,19.6,99,0.00,CLR,OVC,0.00,WeatherDisplay:10.37,2013-01-12 22:47:00,
2013-01-12 17:49:00,43.6,43.1,30.03,SSW,193,14.4,19.6,98,0.00,CLR,OVC,0.00,WeatherDisplay:10.37,2013-01-12 22:49:00,
2013-01-12 17:51:00,43.6,43.1,30.03,South,186,15.7,25.3,98,0.00,CLR,OVC,0.00,WeatherDisplay:10.37,2013-01-12 22:51:00,
2013-01-12 17:53:00,43.6,43.1,30.04,South,177,17.8,25.0,98,0.00,CLR,OVC,0.00,WeatherDisplay:10.37,2013-01-12 22:53:00,
2013-01-12 17:54:00,43.6,43.1,30.03,South,187,16.0,26.5,98,0.00,CLR,OVC,0.00,WeatherDisplay:10.37,2013-01-12 22:54:00,
2013-01-12 17:56:00,43.6,43.1,30.04,SSW,196,16.0,20.7,98,0.00,CLR,OVC,0.00,WeatherDisplay:10.37,2013-01-12 22:56:00,
2013-01-12 17:58:00,43.6,43.1,30.03,South,171,13.1,20.7,98,0.00,CLR,OVC,0.00,WeatherDisplay:10.37,2013-01-12 22:58:00,
2013-01-12 17:59:00,43.6,43.1,30.03,South,191,15.0,20.7,98,0.00,CLR,OVC,0.00,WeatherDisplay:10.37,2013-01-12 22:59:00,
2013-01-12 18:02:00,43.6,43.3,30.04,South,170,15.2,20.7,99,0.00,CLR,OVC,0.00,WeatherDisplay:10.37,2013-01-12 23:02:00,
2013-01-12 18:03:00,43.6,43.3,30.04,South,173,18.1,24.0,99,0.00,CLR,OVC,0.00,WeatherDisplay:10.37,2013-01-12 23:03:00,
2013-01-12 18:04:00,43.7,43.4,30.04,South,187,16.2,26.5,99,0.00,CLR,OVC,0.00,WeatherDisplay:10.37,2013-01-12 23:04:00,
2013-01-12 18:07:00,43.7,43.4,30.04,South,172,16.3,19.6,99,0.00,CLR,OVC,0.00,WeatherDisplay:10.37,2013-01-12 23:07:00,
2013-01-12 18:08:00,43.7,43.4,30.03,South,176,18.6,24.2,99,0.00,CLR,OVC,0.00,WeatherDisplay:10.37,2013-01-12 23:08:00,
2013-01-12 18:09:00,43.7,43.2,30.03,South,170,16.6,25.3,98,0.00,CLR,OVC,0.00,WeatherDisplay:10.37,2013-01-12 23:09:00,
2013-01-12 18:12:00,43.7,43.4,30.02,South,191,15.3,21.9,99,0.00,CLR,OVC,0.00,WeatherDisplay:10.37,2013-01-12 23:12:00,
2013-01-12 18:13:00,43.7,43.2,30.02,SSW,196,14.7,25.3,98,0.00,CLR,OVC,0.00,WeatherDisplay:10.37,2013-01-12 23:13:00,
2013-01-12 18:14:00,43.7,43.2,30.02,South,181,14.0,25.3,98,0.00,CLR,OVC,0.00,WeatherDisplay:10.37,2013-01-12 23:14:00,
2013-01-12 18:15:00,43.7,43.2,30.02,South,185,15.0,25.3,98,0.00,CLR,OVC,0.00,WeatherDisplay:10.37,2013-01-12 23:15:00,
2013-01-12 18:17:00,43.7,43.4,30.03,SSW,199,16.7,26.5,99,0.00,CLR,OVC,0.00,WeatherDisplay:10.37,2013-01-12 23:17:00,
2013-01-12 18:18:00,43.7,43.2,30.03,South,187,13.2,22.0,98,0.00,CLR,OVC,0.00,WeatherDisplay:10.37,2013-01-12 23:18:00,
2013-01-12 18:20:00,43.6,43.3,30.03,SSW,205,14.4,21.9,99,0.00,CLR,OVC,0.00,WeatherDisplay:10.37,2013-01-12 23:20:00,
2013-01-12 18:22:00,43.6,43.3,30.03,South,190,15.3,20.7,99,0.00,CLR,OVC,0.00,WeatherDisplay:10.37,2013-01-12 23:22:00,
2013-01-12 18:23:00,43.6,43.3,30.03,SSW,203,16.6,24.0,99,0.00,CLR,OVC,0.00,WeatherDisplay:10.37,2013-01-12 23:23:00,
2013-01-12 18:25:00,43.6,43.3,30.03,South,188,16.7,24.2,99,0.00,CLR,OVC,0.00,WeatherDisplay:10.37,2013-01-12 23:25:00,
2013-01-12 18:27:00,43.6,43.3,30.04,SSW,199,15.8,19.6,99,0.00,CLR,OVC,0.00,WeatherDisplay:10.37,2013-01-12 23:27:00,
2013-01-12 18:28:00,43.6,43.3,30.03,South,189,14.5,23.0,99,0.00,CLR,OVC,0.00,WeatherDisplay:10.37,2013-01-12 23:28:00,
2013-01-12 18:30:00,43.6,43.3,30.03,South,179,15.8,23.0,99,0.00,CLR,OVC,0.00,WeatherDisplay:10.37,2013-01-12 23:30:00,
2013-01-12 18:32:00,43.7,43.4,30.03,South,189,14.9,17.3,99,0.00,CLR,OVC,0.00,WeatherDisplay:10.37,2013-01-12 23:32:00,
2013-01-12 18:34:00,43.7,43.4,30.03,South,183,15.4,21.9,99,0.00,CLR,OVC,0.00,WeatherDisplay:10.37,2013-01-12 23:34:00,
2013-01-12 18:35:00,43.7,43.4,30.04,South,187,14.0,17.3,99,0.00,CLR,OVC,0.00,WeatherDisplay:10.37,2013-01-12 23:35:00,
2013-01-12 18:37:00,43.8,43.5,30.04,SSW,209,15.3,21.9,99,0.00,CLR,OVC,0.00,WeatherDisplay:10.37,2013-01-12 23:37:00,
2013-01-12 18:39:00,43.8,43.5,30.03,South,188,11.6,19.6,99,0.00,CLR,OVC,0.00,WeatherDisplay:10.37,2013-01-12 23:39:00,
2013-01-12 18:40:00,43.8,43.5,30.03,SSW,195,13.2,17.3,99,0.00,CLR,OVC,0.00,WeatherDisplay:10.37,2013-01-12 23:40:00,
2013-01-12 18:43:00,43.8,43.5,30.04,SSW,198,12.4,15.0,99,0.00,CLR,OVC,0.00,WeatherDisplay:10.37,2013-01-12 23:43:00,
2013-01-12 18:44:00,43.8,43.5,30.05,SSW,200,14.1,19.6,99,0.00,CLR,OVC,0.00,WeatherDisplay:10.37,2013-01-12 23:44:00,
2013-01-12 18:45:00,43.8,43.5,30.05,SSW,202,14.6,19.6,99,0.00,CLR,OVC,0.00,WeatherDisplay:10.37,2013-01-12 23:45:00,
2013-01-12 18:48:00,43.8,43.5,30.04,South,191,15.3,20.7,99,0.00,CLR,OVC,0.00,WeatherDisplay:10.37,2013-01-12 23:48:00,
2013-01-12 18:49:00,43.8,43.5,30.04,South,183,14.7,20.7,99,0.00,CLR,OVC,0.00,WeatherDisplay:10.37,2013-01-12 23:49:00,
2013-01-12 18:50:00,43.8,43.5,30.03,South,173,13.1,19.6,99,0.00,CLR,OVC,0.00,WeatherDisplay:10.37,2013-01-12 23:50:00,
2013-01-12 18:53:00,43.8,43.5,30.04,South,187,13.1,19.6,99,0.00,CLR,OVC,0.00,WeatherDisplay:10.37,2013-01-12 23:53:00,
2013-01-12 18:54:00,43.8,43.5,30.05,South,188,11.7,19.6,99,0.00,CLR,OVC,0.00,WeatherDisplay:10.37,2013-01-12 23:54:00,
2013-01-12 18:55:00,43.8,43.5,30.05,South,188,11.8,19.6,99,0.00,CLR,OVC,0.00,WeatherDisplay:10.37,2013-01-12 23:55:00,
2013-01-12 18:58:00,43.8,43.5,30.04,SSE,165,10.1,12.7,99,0.00,CLR,OVC,0.00,WeatherDisplay:10.37,2013-01-12 23:58:00,
2013-01-12 18:59:00,43.8,43.5,30.04,South,172,10.8,12.7,99,0.00,CLR,OVC,0.00,WeatherDisplay:10.37,2013-01-12 23:59:00,
2013-01-12 19:00:00,43.9,43.6,30.04,SSW,196,8.1,15.0,99,0.00,CLR,OVC,0.00,WeatherDisplay:10.37,2013-01-13 00:00:00,
2013-01-12 19:03:00,43.9,43.6,30.04,South,174,14.8,19.6,99,0.00,CLR,OVC,0.00,WeatherDisplay:10.37,2013-01-13 00:03:00,
2013-01-12 19:04:00,43.9,43.6,30.05,SSW,197,9.2,17.3,99,0.00,CLR,OVC,0.00,WeatherDisplay:10.37,2013-01-13 00:04:00,
2013-01-12 19:05:00,43.9,43.6,30.04,South,186,12.2,18.4,99,0.00,CLR,OVC,0.00,WeatherDisplay:10.37,2013-01-13 00:05:00,
2013-01-12 19:08:00,43.8,43.5,30.05,South,189,12.3,19.6,99,0.00,CLR,OVC,0.00,WeatherDisplay:10.37,2013-01-13 00:08:00,
2013-01-12 19:09:00,43.8,43.5,30.05,SSW,197,12.0,14.0,99,0.00,CLR,OVC,0.00,WeatherDisplay:10.37,2013-01-13 00:09:00,
2013-01-12 19:10:00,43.8,43.5,30.05,South,181,12.1,18.4,99,0.00,CLR,OVC,0.00,WeatherDisplay:10.37,2013-01-13 00:10:00,
2013-01-12 19:13:00,43.8,43.5,30.05,SSE,157,16.6,19.6,99,0.00,CLR,OVC,0.00,WeatherDisplay:10.37,2013-01-13 00:13:00,
2013-01-12 19:14:00,43.8,43.5,30.05,South,186,15.7,23.0,99,0.00,CLR,OVC,0.00,WeatherDisplay:10.37,2013-01-13 00:14:00,
2013-01-12 19:16:00,43.8,43.5,30.05,South,183,14.3,19.6,99,0.00,CLR,OVC,0.00,WeatherDisplay:10.37,2013-01-13 00:16:00,
2013-01-12 19:17:00,43.8,43.5,30.04,South,176,9.1,18.4,99,0.00,CLR,OVC,0.00,WeatherDisplay:10.37,2013-01-13 00:17:00,
2013-01-12 19:18:00,43.8,43.5,30.04,South,185,11.8,19.6,99,0.00,CLR,OVC,0.00,WeatherDisplay:10.37,2013-01-13 00:18:00,
2013-01-12 19:19:00,43.8,43.5,30.03,South,182,14.1,19.6,99,0.00,CLR,OVC,0.00,WeatherDisplay:10.37,2013-01-13 00:19:00,
2013-01-12 19:21:00,43.8,43.5,30.03,SSW,192,9.4,17.3,99,0.00,CLR,OVC,0.00,WeatherDisplay:10.37,2013-01-13 00:21:00,
2013-01-12 19:22:00,43.8,43.5,30.04,South,188,9.3,14.0,99,0.00,CLR,OVC,0.00,WeatherDisplay:10.37,2013-01-13 00:22:00,
2013-01-12 19:23:00,43.8,43.5,30.04,SSW,203,10.0,18.4,99,0.00,CLR,OVC,0.00,WeatherDisplay:10.37,2013-01-13 00:23:00,
2013-01-12 19:24:00,43.8,43.5,30.04,SSW,201,13.5,18.4,99,0.00,CLR,OVC,0.00,WeatherDisplay:10.37,2013-01-13 00:24:00,
2013-01-12 19:26:00,43.8,43.5,30.04,SSE,166,10.2,12.0,99,0.00,CLR,OVC,0.00,WeatherDisplay:10.37,2013-01-13 00:26:00,
2013-01-12 19:27:00,43.9,43.6,30.04,South,182,11.6,14.0,99,0.00,CLR,OVC,0.00,WeatherDisplay:10.37,2013-01-13 00:27:00,
2013-01-12 19:28:00,43.9,43.6,30.05,South,175,10.1,13.8,99,0.00,CLR,OVC,0.00,WeatherDisplay:10.37,2013-01-13 00:28:00,
2013-01-12 19:30:00,43.9,43.6,30.05,SSW,198,6.4,11.5,99,0.00,CLR,OVC,0.00,WeatherDisplay:10.37,2013-01-13 00:30:00,
2013-01-12 19:31:00,43.9,43.6,30.05,SSW,206,5.0,11.5,99,0.00,CLR,OVC,0.00,WeatherDisplay:10.37,2013-01-13 00:31:00,
2013-01-12 19:32:00,43.9,43.6,30.05,SSW,195,6.1,8.1,99,0.00,CLR,OVC,0.00,WeatherDisplay:10.37,2013-01-13 00:32:00,
2013-01-12 19:33:00,43.9,43.6,30.05,South,184,6.2,9.2,99,0.00,CLR,OVC,0.00,WeatherDisplay:10.37,2013-01-13 00:33:00,
2013-01-12 19:35:00,43.9,43.6,30.05,SSW,195,7.1,9.2,99,0.00,CLR,OVC,0.00,WeatherDisplay:10.37,2013-01-13 00:35:00,
2013-01-12 19:36:00,43.9,43.6,30.05,South,188,7.5,9.2,99,0.00,CLR,OVC,0.00,WeatherDisplay:10.37,2013-01-13 00:36:00,
2013-01-12 19:37:00,43.9,43.6,30.05,South,185,8.2,11.5,99,0.00,CLR,OVC,0.00,WeatherDisplay:10.37,2013-01-13 00:37:00,
2013-01-12 19:39:00,43.9,43.6,30.05,South,187,13.5,17.0,99,0.00,CLR,OVC,0.00,WeatherDisplay:10.37,2013-01-13 00:39:00,
2013-01-12 19:40:00,43.9,43.6,30.05,SSW,200,14.5,21.9,99,0.00,CLR,OVC,0.00,WeatherDisplay:10.37,2013-01-13 00:40:00,
2013-01-12 19:41:00,43.9,43.6,30.05,South,188,12.0,17.3,99,0.00,CLR,OVC,0.00,WeatherDisplay:10.37,2013-01-13 00:41:00,
2013-01-12 19:42:00,43.9,43.6,30.05,SSW,195,9.2,16.1,99,0.00,CLR,OVC,0.00,WeatherDisplay:10.37,2013-01-13 00:42:00,
2013-01-12 19:44:00,43.8,43.5,30.05,South,181,11.6,16.1,99,0.00,CLR,OVC,0.00,WeatherDisplay:10.37,2013-01-13 00:44:00,
2013-01-12 19:45:00,43.8,43.5,30.05,South,188,12.7,18.4,99,0.00,CLR,OVC,0.00,WeatherDisplay:10.37,2013-01-13 00:45:00,
2013-01-12 19:46:00,43.8,43.5,30.05,South,181,11.5,17.3,99,0.00,CLR,OVC,0.00,WeatherDisplay:10.37,2013-01-13 00:46:00,
2013-01-12 19:47:00,43.8,43.5,30.05,SSW,198,8.2,11.5,99,0.00,CLR,OVC,0.00,WeatherDisplay:10.37,2013-01-13 00:47:00,
2013-01-12 19:49:00,43.7,43.4,30.05,South,190,9.6,11.5,99,0.00,CLR,OVC,0.00,WeatherDisplay:10.37,2013-01-13 00:49:00,
2013-01-12 19:50:00,43.7,43.4,30.05,South,180,10.8,15.0,99,0.00,CLR,OVC,0.00,WeatherDisplay:10.37,2013-01-13 00:50:00,
2013-01-12 19:51:00,43.7,43.4,30.05,South,181,10.0,17.3,99,0.00,CLR,OVC,0.00,WeatherDisplay:10.37,2013-01-13 00:51:00,
2013-01-12 19:53:00,43.7,43.4,30.06,South,183,10.3,15.0,99,0.00,CLR,OVC,0.00,WeatherDisplay:10.37,2013-01-13 00:53:00,
2013-01-12 19:54:00,43.8,43.5,30.05,South,175,10.5,15.0,99,0.00,CLR,OVC,0.00,WeatherDisplay:10.37,2013-01-13 00:54:00,
2013-01-12 19:55:00,43.7,43.4,30.06,South,183,8.7,17.3,99,0.00,CLR,OVC,0.00,WeatherDisplay:10.37,2013-01-13 00:55:00,
2013-01-12 19:57:00,43.8,43.5,30.06,South,175,10.1,13.0,99,0.00,CLR,OVC,0.00,WeatherDisplay:10.37,2013-01-13 00:57:00,
2013-01-12 19:58:00,43.8,43.5,30.06,South,178,11.8,17.3,99,0.00,CLR,OVC,0.00,WeatherDisplay:10.37,2013-01-13 00:58:00,
2013-01-12 19:59:00,43.8,43.5,30.06,SSE,165,11.8,16.1,99,0.00,CLR,OVC,0.00,WeatherDisplay:10.37,2013-01-13 00:59:00,
2013-01-12 20:00:00,43.8,43.8,30.05,South,172,9.6,13.8,100,0.00,CLR,OVC,0.00,WeatherDisplay:10.37,2013-01-13 01:00:00,
2013-01-12 20:02:00,43.8,43.5,30.05,SSE,164,11.6,20.7,99,0.00,CLR,OVC,0.00,WeatherDisplay:10.37,2013-01-13 01:02:00,
2013-01-12 20:03:00,43.8,43.5,30.05,South,183,14.0,25.0,99,0.00,CLR,OVC,0.00,WeatherDisplay:10.37,2013-01-13 01:03:00,
2013-01-12 20:04:00,43.8,43.5,30.05,South,178,14.3,25.3,99,0.00,CLR,OVC,0.00,WeatherDisplay:10.37,2013-01-13 01:04:00,
2013-01-12 20:06:00,43.8,43.8,30.05,SSE,161,10.5,16.0,100,0.00,CLR,OVC,0.00,WeatherDisplay:10.37,2013-01-13 01:06:00,
2013-01-12 20:07:00,43.8,43.5,30.05,South,171,7.7,16.1,99,0.00,CLR,OVC,0.00,WeatherDisplay:10.37,2013-01-13 01:07:00,
2013-01-12 20:08:00,43.8,43.5,30.05,SSE,167,8.4,11.5,99,0.00,CLR,OVC,0.00,WeatherDisplay:10.37,2013-01-13 01:08:00,
2013-01-12 20:09:00,43.7,43.4,30.05,South,185,10.1,15.0,99,0.00,CLR,OVC,0.00,WeatherDisplay:10.37,2013-01-13 01:09:00,
2013-01-12 20:11:00,43.7,43.4,30.04,SSE,157,10.3,16.1,99,0.00,CLR,OVC,0.00,WeatherDisplay:10.37,2013-01-13 01:11:00,
2013-01-12 20:12:00,43.7,43.4,30.04,South,189,12.2,19.6,99,0.00,CLR,OVC,0.00,WeatherDisplay:10.37,2013-01-13 01:12:00,
2013-01-12 20:13:00,43.7,43.4,30.05,South,183,10.9,16.1,99,0.00,CLR,OVC,0.00,WeatherDisplay:10.37,2013-01-13 01:13:00,
2013-01-12 20:14:00,43.7,43.7,30.05,South,191,10.8,16.1,100,0.00,CLR,OVC,0.00,WeatherDisplay:10.37,2013-01-13 01:14:00,
2013-01-12 20:16:00,43.7,43.4,30.05,South,172,8.8,12.7,99,0.00,CLR,OVC,0.00,WeatherDisplay:10.37,2013-01-13 01:16:00,
2013-01-12 20:18:00,43.8,43.5,30.05,SE,143,7.6,12.7,99,0.00,CLR,OVC,0.00,WeatherDisplay:10.37,2013-01-13 01:18:00,
2013-01-12 20:19:00,43.8,43.5,30.05,SSE,148,6.9,11.5,99,0.00,CLR,OVC,0.00,WeatherDisplay:10.37,2013-01-13 01:19:00,
2013-01-12 20:21:00,43.8,43.5,30.05,SSE,155,7.8,10.4,99,0.00,CLR,OVC,0.00,WeatherDisplay:10.37,2013-01-13 01:21:00,
2013-01-12 20:23:00,43.8,43.5,30.06,SSE,166,6.5,11.5,99,0.00,CLR,OVC,0.00,WeatherDisplay:10.37,2013-01-13 01:23:00,
2013-01-12 20:24:00,43.8,43.5,30.06,SSW,192,8.1,11.5,99,0.00,CLR,OVC,0.00,WeatherDisplay:10.37,2013-01-13 01:24:00,
2013-01-12 20:26:00,43.8,43.8,30.06,South,182,8.1,9.2,100,0.00,CLR,OVC,0.00,WeatherDisplay:10.37,2013-01-13 01:26:00,
2013-01-12 20:28:00,43.9,43.9,30.06,SSW,193,7.8,15.0,100,0.00,CLR,OVC,0.00,WeatherDisplay:10.37,2013-01-13 01:28:00,
2013-01-12 20:29:00,43.9,43.9,30.05,South,172,10.0,17.3,100,0.00,CLR,OVC,0.00,WeatherDisplay:10.37,2013-01-13 01:29:00,
2013-01-12 20:31:00,43.9,43.6,30.05,SSW,192,14.0,18.4,99,0.00,CLR,OVC,0.00,WeatherDisplay:10.37,2013-01-13 01:31:00,
2013-01-12 20:33:00,43.9,43.6,30.05,SSE,161,14.6,19.6,99,0.00,CLR,OVC,0.00,WeatherDisplay:10.37,2013-01-13 01:33:00,
2013-01-12 20:34:00,43.9,43.6,30.05,South,185,10.3,19.6,99,0.00,CLR,OVC,0.00,WeatherDisplay:10.37,2013-01-13 01:34:00,
2013-01-12 20:35:00,43.9,43.9,30.05,South,179,7.6,11.0,100,0.00,CLR,OVC,0.00,WeatherDisplay:10.37,2013-01-13 01:35:00,
2013-01-12 20:36:00,43.9,43.9,30.05,South,190,11.8,13.0,100,0.00,CLR,OVC,0.00,WeatherDisplay:10.37,2013-01-13 01:36:00,
2013-01-12 20:38:00,44.0,43.7,30.05,SSE,158,10.8,18.4,99,0.00,CLR,OVC,0.00,WeatherDisplay:10.37,2013-01-13 01:38:00,
2013-01-12 20:39:00,43.9,43.9,30.05,SSW,196,8.7,15.0,100,0.00,CLR,OVC,0.00,WeatherDisplay:10.37,2013-01-13 01:39:00,
2013-01-12 20:40:00,43.9,43.9,30.05,SSE,156,7.9,12.7,100,0.00,CLR,OVC,0.00,WeatherDisplay:10.37,2013-01-13 01:40:00,
2013-01-12 20:41:00,43.9,43.9,30.05,South,183,10.1,11.5,100,0.00,CLR,OVC,0.00,WeatherDisplay:10.37,2013-01-13 01:41:00,
2013-01-12 20:43:00,43.9,43.6,30.05,South,189,8.0,14.0,99,0.00,CLR,OVC,0.00,WeatherDisplay:10.37,2013-01-13 01:43:00,
2013-01-12 20:44:00,43.9,43.6,30.05,SSE,160,11.8,16.0,99,0.00,CLR,OVC,0.00,WeatherDisplay:10.37,2013-01-13 01:44:00,
2013-01-12 20:45:00,43.9,43.6,30.04,South,188,12.0,16.1,99,0.00,CLR,OVC,0.00,WeatherDisplay:10.37,2013-01-13 01:45:00,
2013-01-12 20:46:00,43.9,43.9,30.04,SSE,164,9.0,13.8,100,0.00,CLR,OVC,0.00,WeatherDisplay:10.37,2013-01-13 01:46:00,
2013-01-12 20:48:00,43.9,43.6,30.04,South,183,10.0,17.3,99,0.00,CLR,OVC,0.00,WeatherDisplay:10.37,2013-01-13 01:48:00,
2013-01-12 20:49:00,43.8,43.5,30.04,South,172,7.7,13.8,99,0.00,CLR,OVC,0.00,WeatherDisplay:10.37,2013-01-13 01:49:00,
2013-01-12 20:50:00,43.8,43.5,30.04,South,177,9.8,16.1,99,0.00,CLR,OVC,0.00,WeatherDisplay:10.37,2013-01-13 01:50:00,
2013-01-12 20:51:00,43.8,43.5,30.04,South,169,8.6,13.8,99,0.00,CLR,OVC,0.00,WeatherDisplay:10.37,2013-01-13 01:51:00,
2013-01-12 20:53:00,43.8,43.5,30.04,SSW,196,10.2,14.0,99,0.00,CLR,OVC,0.00,WeatherDisplay:10.37,2013-01-13 01:53:00,
2013-01-12 20:54:00,43.9,43.6,30.04,SSW,196,12.8,19.6,99,0.00,CLR,OVC,0.00,WeatherDisplay:10.37,2013-01-13 01:54:00,
2013-01-12 20:55:00,43.9,43.9,30.04,South,186,10.0,19.6,100,0.00,CLR,OVC,0.00,WeatherDisplay:10.37,2013-01-13 01:55:00,
2013-01-12 20:56:00,43.9,43.6,30.04,South,172,9.2,12.7,99,0.00,CLR,OVC,0.00,WeatherDisplay:10.37,2013-01-13 01:56:00,
2013-01-12 20:58:00,43.9,43.6,30.04,SSE,164,11.0,16.1,99,0.00,CLR,OVC,0.00,WeatherDisplay:10.37,2013-01-13 01:58:00,
2013-01-12 20:59:00,43.9,43.6,30.04,South,173,12.4,16.1,99,0.00,CLR,OVC,0.00,WeatherDisplay:10.37,2013-01-13 01:59:00,
2013-01-12 21:00:00,43.9,43.9,30.04,South,181,15.4,25.3,100,0.00,CLR,OVC,0.00,WeatherDisplay:10.37,2013-01-13 02:00:00,
2013-01-12 21:01:00,44.0,43.7,30.04,South,189,12.8,19.6,99,0.00,CLR,OVC,0.00,WeatherDisplay:10.37,2013-01-13 02:01:00,
2013-01-12 21:03:00,44.0,43.7,30.04,South,169,11.4,16.1,99,0.00,CLR,OVC,0.00,WeatherDisplay:10.37,2013-01-13 02:03:00,
2013-01-12 21:04:00,44.0,44.0,30.04,SSE,159,9.7,13.8,100,0.00,CLR,OVC,0.00,WeatherDisplay:10.37,2013-01-13 02:04:00,
2013-01-12 21:05:00,44.0,44.0,30.04,South,178,8.8,12.7,100,0.00,CLR,OVC,0.00,WeatherDisplay:10.37,2013-01-13 02:05:00,
2013-01-12 21:07:00,44.0,43.7,30.04,South,189,12.1,19.6,99,0.00,CLR,OVC,0.00,WeatherDisplay:10.37,2013-01-13 02:07:00,
2013-01-12 21:08:00,44.0,43.7,30.04,SSE,163,12.1,19.6,99,0.00,CLR,OVC,0.00,WeatherDisplay:10.37,2013-01-13 02:08:00,
2013-01-12 21:09:00,44.0,44.0,30.04,SSE,157,13.3,19.6,100,0.00,CLR,OVC,0.00,WeatherDisplay:10.37,2013-01-13 02:09:00,
2013-01-12 21:10:00,44.0,44.0,30.04,SSE,155,12.1,18.4,100,0.00,CLR,OVC,0.00,WeatherDisplay:10.37,2013-01-13 02:10:00,
2013-01-12 21:12:00,44.0,44.0,30.04,SSE,160,8.8,19.6,100,0.00,CLR,OVC,0.00,WeatherDisplay:10.37,2013-01-13 02:12:00,
2013-01-12 21:13:00,44.0,44.0,30.05,SSE,164,13.1,19.6,100,0.00,CLR,OVC,0.00,WeatherDisplay:10.37,2013-01-13 02:13:00,
2013-01-12 21:14:00,44.0,44.0,30.04,SSE,162,9.6,18.4,100,0.00,CLR,OVC,0.00,WeatherDisplay:10.37,2013-01-13 02:14:00,
2013-01-12 21:15:00,44.1,44.1,30.05,South,185,12.1,18.0,100,0.00,CLR,OVC,0.00,WeatherDisplay:10.37,2013-01-13 02:15:00,
2013-01-12 21:17:00,44.1,43.8,30.05,South,174,12.7,19.6,99,0.00,CLR,OVC,0.00,WeatherDisplay:10.37,2013-01-13 02:17:00,
2013-01-12 21:18:00,44.1,43.8,30.05,South,172,7.8,19.6,99,0.00,CLR,OVC,0.00,WeatherDisplay:10.37,2013-01-13 02:18:00,
2013-01-12 21:19:00,44.1,44.1,30.05,South,185,8.1,11.5,100,0.00,CLR,OVC,0.00,WeatherDisplay:10.37,2013-01-13 02:19:00,
2013-01-12 21:20:00,44.2,44.2,30.06,South,189,9.7,13.8,100,0.00,CLR,OVC,0.00,WeatherDisplay:10.37,2013-01-13 02:20:00,
2013-01-12 21:22:00,44.2,44.2,30.05,South,173,7.4,13.8,100,0.00,CLR,OVC,0.00,WeatherDisplay:10.37,2013-01-13 02:22:00,
2013-01-12 21:23:00,44.1,43.8,30.05,SSE,158,14.1,19.6,99,0.00,CLR,OVC,0.00,WeatherDisplay:10.37,2013-01-13 02:23:00,
2013-01-12 21:24:00,44.2,43.9,30.05,SSE,161,10.8,21.9,99,0.00,CLR,OVC,0.00,WeatherDisplay:10.37,2013-01-13 02:24:00,
2013-01-12 21:25:00,44.2,43.9,30.04,SSE,154,11.1,19.6,99,0.00,CLR,OVC,0.00,WeatherDisplay:10.37,2013-01-13 02:25:00,
2013-01-12 21:27:00,44.2,43.9,30.04,South,175,9.6,15.0,99,0.00,CLR,OVC,0.00,WeatherDisplay:10.37,2013-01-13 02:27:00,
2013-01-12 21:28:00,44.2,44.2,30.04,South,173,12.0,15.0,100,0.00,CLR,OVC,0.00,WeatherDisplay:10.37,2013-01-13 02:28:00,
2013-01-12 21:29:00,44.2,43.9,30.04,SSE,168,10.0,16.1,99,0.00,CLR,OVC,0.00,WeatherDisplay:10.37,2013-01-13 02:29:00,
2013-01-12 21:30:00,44.2,44.2,30.04,SSE,158,11.6,16.1,100,0.00,CLR,OVC,0.00,WeatherDisplay:10.37,2013-01-13 02:30:00,
2013-01-12 21:32:00,44.3,44.0,30.04,SSE,163,10.1,20.7,99,0.00,CLR,OVC,0.00,WeatherDisplay:10.37,2013-01-13 02:32:00,
2013-01-12 21:33:00,44.3,44.0,30.04,SSE,165,8.8,12.7,99,0.00,CLR,OVC,0.00,WeatherDisplay:10.37,2013-01-13 02:33:00,
2013-01-12 21:34:00,44.3,44.0,30.04,South,186,9.8,13.8,99,0.00,CLR,OVC,0.00,WeatherDisplay:10.37,2013-01-13 02:34:00,
2013-01-12 21:35:00,44.3,44.0,30.04,South,189,7.8,11.5,99,0.00,CLR,OVC,0.00,WeatherDisplay:10.37,2013-01-13 02:35:00,
2013-01-12 21:37:00,44.3,44.0,30.04,South,175,10.0,12.7,99,0.00,CLR,OVC,0.00,WeatherDisplay:10.37,2013-01-13 02:37:00,
2013-01-12 21:38:00,44.3,44.0,30.04,SSW,204,11.9,13.8,99,0.00,CLR,OVC,0.00,WeatherDisplay:10.37,2013-01-13 02:38:00,
2013-01-12 21:40:00,44.3,44.0,30.03,South,184,11.4,18.4,99,0.00,CLR,OVC,0.00,WeatherDisplay:10.37,2013-01-13 02:40:00,
2013-01-12 21:42:00,44.3,44.0,30.03,South,191,12.2,18.4,99,0.00,CLR,OVC,0.00,WeatherDisplay:10.37,2013-01-13 02:42:00,
2013-01-12 21:43:00,44.3,44.0,30.03,SSW,194,11.2,16.1,99,0.00,CLR,OVC,0.00,WeatherDisplay:10.37,2013-01-13 02:43:00,
2013-01-12 21:46:00,44.3,44.0,30.03,South,181,7.6,12.7,99,0.00,CLR,OVC,0.00,WeatherDisplay:10.37,2013-01-13 02:46:00,
2013-01-12 21:47:00,44.2,43.9,30.04,SSW,193,10.8,17.3,99,0.00,CLR,OVC,0.00,WeatherDisplay:10.37,2013-01-13 02:47:00,
2013-01-12 21:48:00,44.2,43.9,30.04,SSW,208,8.4,11.5,99,0.00,CLR,OVC,0.00,WeatherDisplay:10.37,2013-01-13 02:48:00,
2013-01-12 21:51:00,44.2,43.9,30.04,SSW,200,9.8,11.5,99,0.00,CLR,OVC,0.00,WeatherDisplay:10.37,2013-01-13 02:51:00,
2013-01-12 21:53:00,44.2,43.9,30.04,SW,215,8.6,11.5,99,0.00,CLR,OVC,0.00,WeatherDisplay:10.37,2013-01-13 02:53:00,
2013-01-12 21:56:00,44.0,43.7,30.04,SSW,206,8.9,10.4,99,0.00,CLR,OVC,0.00,WeatherDisplay:10.37,2013-01-13 02:56:00,
2013-01-12 21:58:00,43.9,43.4,30.04,SSW,211,8.4,11.5,98,0.00,CLR,OVC,0.00,WeatherDisplay:10.37,2013-01-13 02:58:00,
2013-01-12 22:01:00,43.7,43.2,30.05,SW,217,7.0,10.4,98,0.00,CLR,OVC,0.00,WeatherDisplay:10.37,2013-01-13 03:01:00,
2013-01-12 22:03:00,43.6,43.1,30.05,SSW,213,7.8,11.5,98,0.00,CLR,OVC,0.00,WeatherDisplay:10.37,2013-01-13 03:03:00,
2013-01-12 22:04:00,43.5,43.0,30.05,SSW,212,6.7,9.2,98,0.00,CLR,OVC,0.00,WeatherDisplay:10.37,2013-01-13 03:04:00,
2013-01-12 22:06:00,43.4,43.1,30.05,SSW,199,6.3,9.2,99,0.00,CLR,OVC,0.00,WeatherDisplay:10.37,2013-01-13 03:06:00,
2013-01-12 22:08:00,43.3,43.0,30.05,SSW,198,6.8,9.2,99,0.00,CLR,OVC,0.00,WeatherDisplay:10.37,2013-01-13 03:08:00,
2013-01-12 22:09:00,43.2,42.7,30.05,SSW,196,6.3,9.2,98,0.00,CLR,OVC,0.00,WeatherDisplay:10.37,2013-01-13 03:09:00,
2013-01-12 22:11:00,43.2,42.7,30.05,SSW,206,9.3,11.5,98,0.00,CLR,OVC,0.00,WeatherDisplay:10.37,2013-01-13 03:11:00,
2013-01-12 22:14:00,43.2,42.9,30.06,SSW,199,8.6,11.5,99,0.00,CLR,OVC,0.00,WeatherDisplay:10.37,2013-01-13 03:14:00,
2013-01-12 22:16:00,43.3,43.0,30.06,SSW,195,8.4,11.5,99,0.00,CLR,OVC,0.00,WeatherDisplay:10.37,2013-01-13 03:16:00,
2013-01-12 22:19:00,43.4,43.1,30.07,SSW,206,7.7,10.4,99,0.00,CLR,OVC,0.00,WeatherDisplay:10.37,2013-01-13 03:19:00,
2013-01-12 22:21:00,43.4,43.1,30.07,SSW,201,8.8,11.5,99,0.00,CLR,OVC,0.00,WeatherDisplay:10.37,2013-01-13 03:21:00,
2013-01-12 22:24:00,43.5,43.2,30.07,South,184,9.2,13.8,99,0.00,CLR,OVC,0.00,WeatherDisplay:10.37,2013-01-13 03:24:00,
2013-01-12 22:26:00,43.6,43.3,30.07,SSW,200,9.8,11.5,99,0.00,CLR,OVC,0.00,WeatherDisplay:10.37,2013-01-13 03:26:00,
2013-01-12 22:29:00,43.7,43.4,30.06,SSW,198,10.5,14.0,99,0.00,CLR,OVC,0.00,WeatherDisplay:10.37,2013-01-13 03:29:00,
2013-01-12 22:31:00,43.9,43.6,30.07,SSW,206,11.4,15.0,99,0.00,CLR,OVC,0.00,WeatherDisplay:10.37,2013-01-13 03:31:00,
2013-01-12 22:32:00,43.9,43.6,30.06,SSW,201,11.4,15.0,99,0.00,CLR,OVC,0.00,WeatherDisplay:10.37,2013-01-13 03:32:00,
2013-01-12 22:34:00,44.0,43.7,30.07,SSW,196,10.0,17.0,99,0.00,CLR,OVC,0.00,WeatherDisplay:10.37,2013-01-13 03:34:00,
2013-01-12 22:36:00,44.1,43.8,30.07,SSW,192,10.5,18.4,99,0.00,CLR,OVC,0.00,WeatherDisplay:10.37,2013-01-13 03:36:00,
2013-01-12 22:37:00,44.1,43.8,30.07,SSW,195,9.9,13.8,99,0.00,CLR,OVC,0.00,WeatherDisplay:10.37,2013-01-13 03:37:00,
2013-01-12 22:39:00,44.2,43.9,30.06,South,188,12.0,16.1,99,0.00,CLR,OVC,0.00,WeatherDisplay:10.37,2013-01-13 03:39:00,
2013-01-12 22:40:00,44.3,44.0,30.06,South,184,11.7,16.1,99,0.00,CLR,OVC,0.00,WeatherDisplay:10.37,2013-01-13 03:40:00,
2013-01-12 22:41:00,44.3,44.0,30.06,South,187,11.5,15.0,99,0.00,CLR,OVC,0.00,WeatherDisplay:10.37,2013-01-13 03:41:00,
2013-01-12 22:42:00,44.3,44.0,30.06,SSW,193,13.9,19.0,99,0.00,CLR,OVC,0.00,WeatherDisplay:10.37,2013-01-13 03:42:00,
2013-01-12 22:45:00,44.4,44.1,30.06,SSW,200,12.9,17.3,99,0.00,CLR,OVC,0.00,WeatherDisplay:10.37,2013-01-13 03:45:00,
2013-01-12 22:46:00,44.5,44.0,30.06,SSW,213,11.9,17.3,98,0.00,CLR,OVC,0.00,WeatherDisplay:10.37,2013-01-13 03:46:00,
2013-01-12 22:47:00,44.4,43.9,30.06,SSW,200,12.1,15.0,98,0.00,CLR,OVC,0.00,WeatherDisplay:10.37,2013-01-13 03:47:00,
2013-01-12 22:50:00,44.3,43.8,30.05,SSW,195,8.9,12.7,98,0.00,CLR,OVC,0.00,WeatherDisplay:10.37,2013-01-13 03:50:00,
2013-01-12 22:51:00,44.2,43.7,30.05,SSW,213,9.1,10.4,98,0.00,CLR,OVC,0.00,WeatherDisplay:10.37,2013-01-13 03:51:00,
2013-01-12 22:52:00,44.1,43.6,30.05,SSW,206,8.5,11.5,98,0.00,CLR,OVC,0.00,WeatherDisplay:10.37,2013-01-13 03:52:00,
2013-01-12 22:55:00,43.9,43.4,30.05,SW,215,7.9,11.5,98,0.00,CLR,OVC,0.00,WeatherDisplay:10.37,2013-01-13 03:55:00,
2013-01-12 22:56:00,43.8,43.3,30.05,SW,214,9.9,11.5,98,0.00,CLR,OVC,0.00,WeatherDisplay:10.37,2013-01-13 03:56:00,
2013-01-12 22:57:00,43.7,43.2,30.05,SW,216,8.1,10.4,98,0.00,CLR,OVC,0.00,WeatherDisplay:10.37,2013-01-13 03:57:00,
2013-01-12 23:00:00,43.5,43.0,30.05,SW,219,6.8,9.2,98,0.00,CLR,OVC,0.00,WeatherDisplay:10.37,2013-01-13 04:00:00,
2013-01-12 23:01:00,43.3,42.8,30.05,SSW,210,8.7,11.5,98,0.00,CLR,OVC,0.00,WeatherDisplay:10.37,2013-01-13 04:01:00,
2013-01-12 23:02:00,43.3,42.8,30.06,SSW,197,7.5,9.2,98,0.00,CLR,OVC,0.00,WeatherDisplay:10.37,2013-01-13 04:02:00,
2013-01-12 23:05:00,43.5,43.0,30.06,SSW,206,8.6,12.7,98,0.00,CLR,OVC,0.00,WeatherDisplay:10.37,2013-01-13 04:05:00,
2013-01-12 23:06:00,43.6,43.3,30.06,SW,221,8.8,11.5,99,0.00,CLR,OVC,0.00,WeatherDisplay:10.37,2013-01-13 04:06:00,
2013-01-12 23:08:00,43.8,43.5,30.06,SW,216,10.2,12.7,99,0.00,CLR,OVC,0.00,WeatherDisplay:10.37,2013-01-13 04:08:00,
2013-01-12 23:10:00,43.8,43.5,30.06,SW,222,10.5,13.8,99,0.00,CLR,OVC,0.00,WeatherDisplay:10.37,2013-01-13 04:10:00,
2013-01-12 23:11:00,43.7,43.2,30.06,SW,214,11.0,12.7,98,0.00,CLR,OVC,0.00,WeatherDisplay:10.37,2013-01-13 04:11:00,
2013-01-12 23:13:00,43.6,43.1,30.05,SSW,212,10.4,12.7,98,0.00,CLR,OVC,0.00,WeatherDisplay:10.37,2013-01-13 04:13:00,
2013-01-12 23:15:00,43.5,43.0,30.05,SW,220,9.5,12.7,98,0.00,CLR,OVC,0.00,WeatherDisplay:10.37,2013-01-13 04:15:00,
2013-01-12 23:16:00,43.5,43.0,30.06,SSW,213,8.1,11.5,98,0.00,CLR,OVC,0.00,WeatherDisplay:10.37,2013-01-13 04:16:00,
2013-01-12 23:17:00,43.5,43.0,30.05,SSW,212,7.5,10.4,98,0.00,CLR,OVC,0.00,WeatherDisplay:10.37,2013-01-13 04:17:00,
2013-01-12 23:18:00,43.4,42.9,30.05,SSW,209,8.6,10.4,98,0.00,CLR,OVC,0.00,WeatherDisplay:10.37,2013-01-13 04:18:00,
2013-01-12 23:20:00,43.3,42.8,30.05,SSW,211,8.8,11.5,98,0.00,CLR,OVC,0.00,WeatherDisplay:10.37,2013-01-13 04:20:00,
2013-01-12 23:21:00,43.3,42.8,30.05,SSW,210,8.7,11.5,98,0.00,CLR,OVC,0.00,WeatherDisplay:10.37,2013-01-13 04:21:00,
2013-01-12 23:22:00,43.2,42.7,30.05,SSW,210,7.3,9.2,98,0.00,CLR,OVC,0.00,WeatherDisplay:10.37,2013-01-13 04:22:00,
2013-01-12 23:23:00,43.1,42.6,30.05,SSW,208,8.8,10.4,98,0.00,CLR,OVC,0.00,WeatherDisplay:10.37,2013-01-13 04:23:00,
2013-01-12 23:26:00,43.0,42.5,30.05,SSW,211,7.8,10.4,98,0.00,CLR,OVC,0.00,WeatherDisplay:10.37,2013-01-13 04:26:00,
2013-01-12 23:27:00,42.9,42.4,30.05,SW,223,8.4,10.4,98,0.00,CLR,OVC,0.00,WeatherDisplay:10.37,2013-01-13 04:27:00,
2013-01-12 23:28:00,42.9,42.4,30.06,SW,222,9.0,11.5,98,0.00,CLR,OVC,0.00,WeatherDisplay:10.37,2013-01-13 04:28:00,
2013-01-12 23:31:00,42.8,42.3,30.06,SW,226,7.5,9.2,98,0.00,CLR,OVC,0.00,WeatherDisplay:10.37,2013-01-13 04:31:00,
2013-01-12 23:32:00,42.7,42.2,30.06,SW,226,7.4,10.4,98,0.00,CLR,OVC,0.00,WeatherDisplay:10.37,2013-01-13 04:32:00,
2013-01-12 23:33:00,42.7,42.2,30.06,SW,228,6.9,9.2,98,0.00,CLR,OVC,0.00,WeatherDisplay:10.37,2013-01-13 04:33:00,
2013-01-12 23:36:00,42.8,42.5,30.06,SW,232,10.4,12.7,99,0.00,CLR,OVC,0.00,WeatherDisplay:10.37,2013-01-13 04:36:00,
2013-01-12 23:37:00,42.8,42.3,30.06,SW,227,8.4,11.5,98,0.00,CLR,OVC,0.00,WeatherDisplay:10.37,2013-01-13 04:37:00,
2013-01-12 23:38:00,42.8,42.5,30.07,SW,215,7.9,11.5,99,0.00,CLR,OVC,0.00,WeatherDisplay:10.37,2013-01-13 04:38:00,
2013-01-12 23:41:00,42.9,42.4,30.06,SW,216,9.7,11.5,98,0.00,CLR,OVC,0.00,WeatherDisplay:10.37,2013-01-13 04:41:00,
2013-01-12 23:42:00,42.9,42.6,30.06,SSW,208,8.9,11.5,99,0.00,CLR,OVC,0.00,WeatherDisplay:10.37,2013-01-13 04:42:00,
2013-01-12 23:44:00,43.0,42.7,30.06,South,189,8.6,10.4,99,0.00,CLR,OVC,0.00,WeatherDisplay:10.37,2013-01-13 04:44:00,
2013-01-12 23:46:00,42.9,42.4,30.05,SSW,193,7.9,10.4,98,0.00,CLR,OVC,0.00,WeatherDisplay:10.37,2013-01-13 04:46:00,
2013-01-12 23:47:00,42.9,42.4,30.05,South,191,7.3,10.4,98,0.00,CLR,OVC,0.00,WeatherDisplay:10.37,2013-01-13 04:47:00,
2013-01-12 23:50:00,43.0,42.5,30.05,South,189,7.2,10.4,98,0.00,CLR,OVC,0.00,WeatherDisplay:10.37,2013-01-13 04:50:00,
2013-01-12 23:51:00,43.1,42.8,30.05,South,190,8.9,11.5,99,0.00,CLR,OVC,0.00,WeatherDisplay:10.37,2013-01-13 04:51:00,
2013-01-12 23:52:00,43.1,42.8,30.05,South,189,8.6,11.5,99,0.00,CLR,OVC,0.00,WeatherDisplay:10.37,2013-01-13 04:52:00,
2013-01-12 23:55:00,43.3,43.0,30.05,SSW,203,9.7,12.7,99,0.00,CLR,OVC,0.00,WeatherDisplay:10.37,2013-01-13 04:55:00,
2013-01-12 23:56:00,43.3,43.0,30.06,SSW,205,8.6,11.5,99,0.00,CLR,OVC,0.00,WeatherDisplay:10.37,2013-01-13 04:56:00,
2013-01-12 23:57:00,43.4,43.1,30.06,SSW,199,8.3,10.4,99,0.00,CLR,OVC,0.00,WeatherDisplay:10.37,2013-01-13 04:57:00,